Time,TemperatureF,DewpointF,PressureIn,WindDirection,WindDirectionDegrees,WindSpeedMPH,WindSpeedGustMPH,Humidity,HourlyPrecipIn,Conditions,Clouds,dailyrainin,SoftwareType,DateUTC
2013-04-06 00:00:00,64.8,53.2,25.28,North,0,0.0,0.0,66,0.00,,---,0.00,VWS V14.01,2013-04-06 06:00:00,
2013-04-06 00:02:00,64.8,53.2,25.28,North,0,0.0,0.0,66,0.00,,---,0.00,VWS V14.01,2013-04-06 06:02:00,
2013-04-06 00:04:00,64.2,55.0,25.28,North,0,0.0,0.0,72,0.00,,---,0.00,VWS V14.01,2013-04-06 06:04:00,
2013-04-06 00:05:00,64.2,55.0,25.28,North,0,0.0,0.0,72,0.00,,---,0.00,VWS V14.01,2013-04-06 06:05:00,
2013-04-06 00:08:00,64.2,55.0,25.28,North,0,0.0,0.0,72,0.00,,---,0.00,VWS V14.01,2013-04-06 06:08:00,
2013-04-06 00:10:00,64.2,55.0,25.28,North,0,0.0,0.0,72,0.00,,---,0.00,VWS V14.01,2013-04-06 06:10:00,
2013-04-06 00:12:00,64.0,54.5,25.28,North,0,0.0,0.0,71,0.00,,---,0.00,VWS V14.01,2013-04-06 06:12:00,
2013-04-06 00:14:00,64.0,54.5,25.28,North,0,0.0,0.0,71,0.00,,---,0.00,VWS V14.01,2013-04-06 06:14:00,
2013-04-06 00:15:00,64.0,54.5,25.28,North,0,0.0,0.0,71,0.00,,---,0.00,VWS V14.01,2013-04-06 06:15:00,
2013-04-06 00:19:00,64.0,54.5,25.28,North,0,0.0,0.0,71,0.00,,---,0.00,VWS V14.01,2013-04-06 06:19:00,
2013-04-06 00:20:00,64.0,54.5,25.28,North,0,0.0,0.0,71,0.00,,---,0.00,VWS V14.01,2013-04-06 06:20:00,
2013-04-06 00:22:00,64.0,54.5,25.28,North,0,0.0,0.0,71,0.00,,---,0.00,VWS V14.01,2013-04-06 06:22:00,
2013-04-06 00:24:00,64.0,54.5,25.28,North,0,0.0,0.0,71,0.00,,---,0.00,VWS V14.01,2013-04-06 06:24:00,
2013-04-06 00:26:00,64.0,54.5,25.28,North,0,0.0,0.0,71,0.00,,---,0.00,VWS V14.01,2013-04-06 06:26:00,
2013-04-06 00:27:00,64.0,54.5,25.28,North,0,0.0,0.0,71,0.00,,---,0.00,VWS V14.01,2013-04-06 06:27:00,
2013-04-06 00:28:00,63.9,53.9,25.28,North,0,0.0,0.0,70,0.00,,---,0.00,VWS V14.01,2013-04-06 06:28:00,
2013-04-06 00:33:00,63.9,53.9,25.28,North,0,0.0,0.0,70,0.00,,---,0.00,VWS V14.01,2013-04-06 06:33:00,
2013-04-06 00:34:00,63.9,53.9,25.28,North,0,0.0,0.0,70,0.00,,---,0.00,VWS V14.01,2013-04-06 06:34:00,
2013-04-06 00:36:00,63.9,53.9,25.28,North,0,0.0,0.0,70,0.00,,---,0.00,VWS V14.01,2013-04-06 06:36:00,
2013-04-06 00:39:00,63.9,53.9,25.28,North,0,0.0,0.0,70,0.00,,---,0.00,VWS V14.01,2013-04-06 06:39:00,
2013-04-06 00:40:00,63.9,53.9,25.28,North,0,0.0,0.0,70,0.00,,---,0.00,VWS V14.01,2013-04-06 06:40:00,
2013-04-06 00:41:00,63.9,53.9,25.28,North,0,0.0,0.0,70,0.00,,---,0.00,VWS V14.01,2013-04-06 06:41:00,
2013-04-06 00:42:00,63.9,53.9,25.28,North,0,0.0,0.0,70,0.00,,---,0.00,VWS V14.01,2013-04-06 06:42:00,
2013-04-06 00:45:00,63.9,53.9,25.28,North,0,0.0,0.0,70,0.00,,---,0.00,VWS V14.01,2013-04-06 06:45:00,
2013-04-06 00:50:00,64.0,52.5,25.25,North,0,0.0,0.0,66,0.00,,---,0.00,VWS V14.01,2013-04-06 06:50:00,
2013-04-06 00:51:00,64.2,52.6,25.25,North,0,0.0,0.0,66,0.00,,---,0.00,VWS V14.01,2013-04-06 06:51:00,
2013-04-06 00:52:00,64.2,52.6,25.25,North,0,0.0,0.0,66,0.00,,---,0.00,VWS V14.01,2013-04-06 06:52:00,
2013-04-06 00:56:00,64.2,52.6,25.25,North,0,0.0,0.0,66,0.00,,---,0.00,VWS V14.01,2013-04-06 06:56:00,
2013-04-06 00:59:00,64.2,52.6,25.25,North,0,0.0,0.0,66,0.00,,---,0.00,VWS V14.01,2013-04-06 06:59:00,
2013-04-06 01:00:00,64.2,52.6,25.25,North,0,0.0,0.0,66,0.00,,---,0.00,VWS V14.01,2013-04-06 07:00:00,
2013-04-06 01:05:00,64.2,52.6,25.25,North,0,0.0,0.0,66,0.00,,---,0.00,VWS V14.01,2013-04-06 07:05:00,
2013-04-06 01:06:00,64.2,52.6,25.25,North,0,0.0,0.0,66,0.00,,---,0.00,VWS V14.01,2013-04-06 07:06:00,
2013-04-06 01:07:00,64.2,52.6,25.25,North,0,0.0,0.0,66,0.00,,---,0.00,VWS V14.01,2013-04-06 07:07:00,
2013-04-06 01:09:00,64.2,52.6,25.25,North,0,0.0,0.0,66,0.00,,---,0.00,VWS V14.01,2013-04-06 07:09:00,
2013-04-06 01:11:00,64.2,52.6,25.25,North,0,0.0,0.0,66,0.00,,---,0.00,VWS V14.01,2013-04-06 07:11:00,
2013-04-06 01:13:00,64.2,52.6,25.25,North,0,0.0,0.0,66,0.00,,---,0.00,VWS V14.01,2013-04-06 07:13:00,
2013-04-06 01:14:00,64.2,52.6,25.25,North,0,0.0,0.0,66,0.00,,---,0.00,VWS V14.01,2013-04-06 07:14:00,
2013-04-06 01:17:00,64.2,52.6,25.25,North,0,0.0,0.0,66,0.00,,---,0.00,VWS V14.01,2013-04-06 07:17:00,
2013-04-06 01:21:00,64.2,52.6,25.25,North,0,0.0,0.0,66,0.00,,---,0.00,VWS V14.01,2013-04-06 07:21:00,
2013-04-06 01:22:00,64.2,52.6,25.25,North,0,0.0,0.0,66,0.00,,---,0.00,VWS V14.01,2013-04-06 07:22:00,
2013-04-06 01:25:00,64.0,52.5,25.25,North,0,0.0,0.0,66,0.00,,---,0.00,VWS V14.01,2013-04-06 07:25:00,
2013-04-06 01:26:00,64.0,52.5,25.25,North,0,0.0,0.0,66,0.00,,---,0.00,VWS V14.01,2013-04-06 07:26:00,
2013-04-06 01:30:00,64.0,52.5,25.25,North,0,0.0,0.0,66,0.00,,---,0.00,VWS V14.01,2013-04-06 07:30:00,
2013-04-06 01:32:00,64.0,52.5,25.25,North,0,0.0,0.0,66,0.00,,---,0.00,VWS V14.01,2013-04-06 07:32:00,
2013-04-06 01:37:00,64.0,52.5,25.25,North,0,0.0,0.0,66,0.00,,---,0.00,VWS V14.01,2013-04-06 07:37:00,
2013-04-06 01:38:00,63.9,52.7,25.25,North,0,0.0,0.0,67,0.00,,---,0.00,VWS V14.01,2013-04-06 07:38:00,
2013-04-06 01:40:00,63.9,52.7,25.25,North,0,0.0,0.0,67,0.00,,---,0.00,VWS V14.01,2013-04-06 07:40:00,
2013-04-06 01:43:00,63.9,52.7,25.25,North,0,0.0,0.0,67,0.00,,---,0.00,VWS V14.01,2013-04-06 07:43:00,
2013-04-06 01:44:00,63.9,52.7,25.25,North,0,0.0,0.0,67,0.00,,---,0.00,VWS V14.01,2013-04-06 07:44:00,
2013-04-06 01:46:00,63.9,52.3,25.25,North,0,0.0,0.0,66,0.00,,---,0.00,VWS V14.01,2013-04-06 07:46:00,
2013-04-06 01:50:00,63.9,52.3,25.25,North,0,0.0,0.0,66,0.00,,---,0.00,VWS V14.01,2013-04-06 07:50:00,
2013-04-06 01:51:00,63.9,52.3,25.25,North,0,0.0,0.0,66,0.00,,---,0.00,VWS V14.01,2013-04-06 07:51:00,
2013-04-06 01:52:00,63.9,52.3,25.25,North,0,0.0,0.0,66,0.00,,---,0.00,VWS V14.01,2013-04-06 07:52:00,
2013-04-06 01:57:00,63.9,52.3,25.25,North,0,0.0,0.0,66,0.00,,---,0.00,VWS V14.01,2013-04-06 07:57:00,
2013-04-06 01:58:00,63.9,52.3,25.25,North,0,0.0,0.0,66,0.00,,---,0.00,VWS V14.01,2013-04-06 07:58:00,
2013-04-06 01:59:00,63.9,52.3,25.25,North,0,0.0,0.0,66,0.00,,---,0.00,VWS V14.01,2013-04-06 07:59:00,
2013-04-06 02:02:00,63.9,52.3,25.25,North,0,0.0,0.0,66,0.00,,---,0.00,VWS V14.01,2013-04-06 08:02:00,
2013-04-06 02:04:00,63.9,52.3,25.25,North,0,0.0,0.0,66,0.00,,---,0.00,VWS V14.01,2013-04-06 08:04:00,
2013-04-06 02:05:00,63.9,52.3,25.25,North,0,0.0,0.0,66,0.00,,---,0.00,VWS V14.01,2013-04-06 08:05:00,
2013-04-06 02:08:00,63.9,52.3,25.25,North,0,0.0,0.0,66,0.00,,---,0.00,VWS V14.01,2013-04-06 08:08:00,
2013-04-06 02:11:00,63.9,52.3,25.25,North,0,0.0,0.0,66,0.00,,---,0.00,VWS V14.01,2013-04-06 08:11:00,
2013-04-06 02:12:00,63.9,52.3,25.25,North,0,0.0,0.0,66,0.00,,---,0.00,VWS V14.01,2013-04-06 08:12:00,
2013-04-06 02:16:00,63.9,52.3,25.25,North,0,0.0,0.0,66,0.00,,---,0.00,VWS V14.01,2013-04-06 08:16:00,
2013-04-06 02:20:00,63.9,52.3,25.25,North,0,0.0,0.0,66,0.00,,---,0.00,VWS V14.01,2013-04-06 08:20:00,
2013-04-06 02:21:00,63.9,52.3,25.25,North,0,0.0,0.0,66,0.00,,---,0.00,VWS V14.01,2013-04-06 08:21:00,
2013-04-06 02:22:00,63.9,52.3,25.25,North,0,0.0,0.0,66,0.00,,---,0.00,VWS V14.01,2013-04-06 08:22:00,
2013-04-06 02:25:00,64.0,52.0,25.25,North,0,0.0,0.0,65,0.00,,---,0.00,VWS V14.01,2013-04-06 08:25:00,
2013-04-06 02:26:00,64.0,52.0,25.25,North,0,0.0,0.0,65,0.00,,---,0.00,VWS V14.01,2013-04-06 08:26:00,
2013-04-06 02:28:00,64.0,52.0,25.25,North,0,0.0,0.0,65,0.00,,---,0.00,VWS V14.01,2013-04-06 08:28:00,
2013-04-06 02:29:00,64.0,52.0,25.25,North,0,0.0,0.0,65,0.00,,---,0.00,VWS V14.01,2013-04-06 08:29:00,
2013-04-06 02:32:00,64.0,52.0,25.25,North,0,0.0,0.0,65,0.00,,---,0.00,VWS V14.01,2013-04-06 08:32:00,
2013-04-06 02:34:00,64.0,52.0,25.25,North,0,0.0,0.0,65,0.00,,---,0.00,VWS V14.01,2013-04-06 08:34:00,
2013-04-06 02:36:00,64.0,52.0,25.25,North,0,0.0,0.0,65,0.00,,---,0.00,VWS V14.01,2013-04-06 08:36:00,
2013-04-06 02:37:00,64.0,52.0,25.25,North,0,0.0,0.0,65,0.00,,---,0.00,VWS V14.01,2013-04-06 08:37:00,
2013-04-06 02:40:00,64.0,52.0,25.25,North,0,0.0,0.0,65,0.00,,---,0.00,VWS V14.01,2013-04-06 08:40:00,
2013-04-06 02:42:00,64.0,52.0,25.25,North,0,0.0,0.0,65,0.00,,---,0.00,VWS V14.01,2013-04-06 08:42:00,
2013-04-06 02:45:00,63.9,51.5,25.25,North,0,0.0,0.0,64,0.00,,---,0.00,VWS V14.01,2013-04-06 08:45:00,
2013-04-06 02:47:00,64.0,51.2,25.25,North,0,0.0,0.0,63,0.00,,---,0.00,VWS V14.01,2013-04-06 08:47:00,
2013-04-06 02:48:00,64.0,51.2,25.25,North,0,0.0,0.0,63,0.00,,---,0.00,VWS V14.01,2013-04-06 08:48:00,
2013-04-06 02:51:00,64.0,50.8,25.25,North,0,0.0,0.0,62,0.00,,---,0.00,VWS V14.01,2013-04-06 08:51:00,
2013-04-06 02:54:00,64.2,50.9,25.25,North,0,0.0,0.0,62,0.00,,---,0.00,VWS V14.01,2013-04-06 08:54:00,
2013-04-06 02:55:00,64.2,50.9,25.25,North,0,0.0,0.0,62,0.00,,---,0.00,VWS V14.01,2013-04-06 08:55:00,
2013-04-06 02:56:00,64.2,50.9,25.25,North,0,0.0,0.0,62,0.00,,---,0.00,VWS V14.01,2013-04-06 08:56:00,
2013-04-06 03:00:00,64.2,50.9,25.25,North,0,0.0,0.0,62,0.00,,---,0.00,VWS V14.01,2013-04-06 09:00:00,
2013-04-06 03:02:00,64.2,50.9,25.25,North,0,0.0,0.0,62,0.00,,---,0.00,VWS V14.01,2013-04-06 09:02:00,
2013-04-06 03:05:00,64.2,50.9,25.25,North,0,0.0,0.0,62,0.00,,---,0.00,VWS V14.01,2013-04-06 09:05:00,
2013-04-06 03:08:00,64.2,50.9,25.25,North,0,0.0,0.0,62,0.00,,---,0.00,VWS V14.01,2013-04-06 09:08:00,
2013-04-06 03:12:00,64.2,49.2,25.25,North,0,0.0,0.0,58,0.00,,---,0.00,VWS V14.01,2013-04-06 09:12:00,
2013-04-06 03:13:00,64.2,49.2,25.25,North,0,0.0,0.0,58,0.00,,---,0.00,VWS V14.01,2013-04-06 09:13:00,
2013-04-06 03:18:00,64.2,48.2,25.25,North,0,0.0,0.0,56,0.00,,---,0.00,VWS V14.01,2013-04-06 09:18:00,
2013-04-06 03:20:00,64.2,48.2,25.25,North,0,0.0,0.0,56,0.00,,---,0.00,VWS V14.01,2013-04-06 09:20:00,
2013-04-06 03:24:00,64.2,48.2,25.25,North,0,0.0,0.0,56,0.00,,---,0.00,VWS V14.01,2013-04-06 09:24:00,
2013-04-06 03:25:00,64.2,48.2,25.25,North,0,0.0,0.0,56,0.00,,---,0.00,VWS V14.01,2013-04-06 09:25:00,
2013-04-06 03:26:00,64.2,48.2,25.25,North,0,0.0,0.0,56,0.00,,---,0.00,VWS V14.01,2013-04-06 09:26:00,
2013-04-06 03:27:00,64.2,48.2,25.25,North,0,0.0,0.0,56,0.00,,---,0.00,VWS V14.01,2013-04-06 09:27:00,
2013-04-06 03:30:00,64.2,48.2,25.25,North,0,0.0,0.0,56,0.00,,---,0.00,VWS V14.01,2013-04-06 09:30:00,
2013-04-06 03:31:00,64.2,48.2,25.25,North,0,0.0,0.0,56,0.00,,---,0.00,VWS V14.01,2013-04-06 09:31:00,
2013-04-06 03:34:00,64.0,48.0,25.25,North,0,0.0,0.0,56,0.00,,---,0.00,VWS V14.01,2013-04-06 09:34:00,
2013-04-06 03:35:00,64.0,48.0,25.25,North,0,0.0,0.0,56,0.00,,---,0.00,VWS V14.01,2013-04-06 09:35:00,
2013-04-06 03:37:00,64.0,48.0,25.25,North,0,0.0,0.0,56,0.00,,---,0.00,VWS V14.01,2013-04-06 09:37:00,
2013-04-06 03:39:00,64.0,48.0,25.25,North,0,0.0,0.0,56,0.00,,---,0.00,VWS V14.01,2013-04-06 09:39:00,
2013-04-06 03:42:00,64.0,48.0,25.25,North,0,0.0,0.0,56,0.00,,---,0.00,VWS V14.01,2013-04-06 09:42:00,
2013-04-06 03:43:00,64.0,48.0,25.25,North,0,0.0,0.0,56,0.00,,---,0.00,VWS V14.01,2013-04-06 09:43:00,
2013-04-06 03:45:00,64.0,48.0,25.25,North,0,0.0,0.0,56,0.00,,---,0.00,VWS V14.01,2013-04-06 09:45:00,
2013-04-06 03:46:00,64.0,48.0,25.25,North,0,0.0,0.0,56,0.00,,---,0.00,VWS V14.01,2013-04-06 09:46:00,
2013-04-06 03:49:00,64.0,48.0,25.25,North,0,0.0,0.0,56,0.00,,---,0.00,VWS V14.01,2013-04-06 09:49:00,
2013-04-06 03:52:00,64.0,47.1,25.25,North,0,0.0,0.0,54,0.00,,---,0.00,VWS V14.01,2013-04-06 09:52:00,
2013-04-06 03:56:00,64.0,47.6,25.25,North,0,0.0,0.0,55,0.00,,---,0.00,VWS V14.01,2013-04-06 09:56:00,
2013-04-06 04:00:00,64.8,46.7,25.25,North,0,0.0,0.0,52,0.00,,---,0.00,VWS V14.01,2013-04-06 10:00:00,
2013-04-06 04:02:00,64.8,46.7,25.25,North,0,0.0,0.0,52,0.00,,---,0.00,VWS V14.01,2013-04-06 10:02:00,
2013-04-06 04:05:00,64.8,46.7,25.25,North,0,0.0,0.0,52,0.00,,---,0.00,VWS V14.01,2013-04-06 10:05:00,
2013-04-06 04:07:00,64.8,46.7,25.25,North,0,0.0,0.0,52,0.00,,---,0.00,VWS V14.01,2013-04-06 10:07:00,
2013-04-06 04:08:00,64.8,46.7,25.25,North,0,0.0,0.0,52,0.00,,---,0.00,VWS V14.01,2013-04-06 10:08:00,
2013-04-06 04:12:00,64.8,46.2,25.25,North,0,0.0,0.0,51,0.00,,---,0.00,VWS V14.01,2013-04-06 10:12:00,
2013-04-06 04:14:00,64.8,46.2,25.25,North,0,0.0,0.0,51,0.00,,---,0.00,VWS V14.01,2013-04-06 10:14:00,
2013-04-06 04:16:00,64.8,46.2,25.25,North,0,0.0,0.0,51,0.00,,---,0.00,VWS V14.01,2013-04-06 10:16:00,
2013-04-06 04:20:00,64.4,45.9,25.25,North,0,0.0,0.0,51,0.00,,---,0.00,VWS V14.01,2013-04-06 10:20:00,
2013-04-06 04:21:00,64.4,45.9,25.25,North,0,0.0,0.0,51,0.00,,---,0.00,VWS V14.01,2013-04-06 10:21:00,
2013-04-06 04:25:00,64.2,45.7,25.25,North,0,0.0,0.0,51,0.00,,---,0.00,VWS V14.01,2013-04-06 10:25:00,
2013-04-06 04:26:00,64.2,45.7,25.25,North,0,0.0,0.0,51,0.00,,---,0.00,VWS V14.01,2013-04-06 10:26:00,
2013-04-06 04:27:00,64.2,45.7,25.25,North,0,0.0,0.0,51,0.00,,---,0.00,VWS V14.01,2013-04-06 10:27:00,
2013-04-06 04:31:00,64.2,45.7,25.25,North,0,0.0,0.0,51,0.00,,---,0.00,VWS V14.01,2013-04-06 10:31:00,
2013-04-06 04:35:00,64.2,45.7,25.25,North,0,0.0,0.0,51,0.00,,---,0.00,VWS V14.01,2013-04-06 10:35:00,
2013-04-06 04:36:00,64.2,45.7,25.25,North,0,0.0,0.0,51,0.00,,---,0.00,VWS V14.01,2013-04-06 10:36:00,
2013-04-06 04:38:00,64.2,45.7,25.25,North,0,0.0,0.0,51,0.00,,---,0.00,VWS V14.01,2013-04-06 10:38:00,
2013-04-06 04:41:00,64.2,45.7,25.25,North,0,0.0,0.0,51,0.00,,---,0.00,VWS V14.01,2013-04-06 10:41:00,
2013-04-06 04:45:00,64.2,45.7,25.25,North,0,0.0,0.0,51,0.00,,---,0.00,VWS V14.01,2013-04-06 10:45:00,
2013-04-06 04:47:00,64.2,44.1,25.25,North,0,0.0,0.0,48,0.00,,---,0.00,VWS V14.01,2013-04-06 10:47:00,
2013-04-06 04:50:00,64.2,44.1,25.25,North,0,0.0,0.0,48,0.00,,---,0.00,VWS V14.01,2013-04-06 10:50:00,
2013-04-06 04:52:00,64.2,44.1,25.25,North,0,0.0,0.0,48,0.00,,---,0.00,VWS V14.01,2013-04-06 10:52:00,
2013-04-06 04:55:00,64.2,44.1,25.25,North,0,0.0,0.0,48,0.00,,---,0.00,VWS V14.01,2013-04-06 10:55:00,
2013-04-06 04:58:00,64.2,44.1,25.25,North,0,0.0,0.0,48,0.00,,---,0.00,VWS V14.01,2013-04-06 10:58:00,
2013-04-06 05:00:00,64.2,44.1,25.25,North,0,0.0,0.0,48,0.00,,---,0.00,VWS V14.01,2013-04-06 11:00:00,
2013-04-06 05:03:00,64.2,44.1,25.25,North,0,0.0,0.0,48,0.00,,---,0.00,VWS V14.01,2013-04-06 11:03:00,
2013-04-06 05:04:00,64.2,44.1,25.25,North,0,0.0,0.0,48,0.00,,---,0.00,VWS V14.01,2013-04-06 11:04:00,
2013-04-06 05:05:00,64.2,44.1,25.25,North,0,0.0,0.0,48,0.00,,---,0.00,VWS V14.01,2013-04-06 11:05:00,
2013-04-06 05:08:00,64.2,44.1,25.25,North,0,0.0,0.0,48,0.00,,---,0.00,VWS V14.01,2013-04-06 11:08:00,
2013-04-06 05:10:00,64.2,44.1,25.25,North,0,0.0,0.0,48,0.00,,---,0.00,VWS V14.01,2013-04-06 11:10:00,
2013-04-06 05:13:00,64.2,44.1,25.25,North,0,0.0,0.0,48,0.00,,---,0.00,VWS V14.01,2013-04-06 11:13:00,
2013-04-06 05:16:00,63.9,42.7,25.25,North,0,0.0,0.0,46,0.00,,---,0.00,VWS V14.01,2013-04-06 11:16:00,
2013-04-06 05:19:00,63.9,42.7,25.25,North,0,0.0,0.0,46,0.00,,---,0.00,VWS V14.01,2013-04-06 11:19:00,
2013-04-06 05:21:00,63.9,42.7,25.25,North,0,0.0,0.0,46,0.00,,---,0.00,VWS V14.01,2013-04-06 11:21:00,
2013-04-06 05:25:00,63.5,42.9,25.25,North,0,0.0,0.0,47,0.00,,---,0.00,VWS V14.01,2013-04-06 11:25:00,
2013-04-06 05:26:00,63.5,42.9,25.25,North,0,0.0,0.0,47,0.00,,---,0.00,VWS V14.01,2013-04-06 11:26:00,
2013-04-06 05:27:00,63.5,42.9,25.25,North,0,0.0,0.0,47,0.00,,---,0.00,VWS V14.01,2013-04-06 11:27:00,
2013-04-06 05:30:00,63.5,42.9,25.25,North,0,0.0,0.0,47,0.00,,---,0.00,VWS V14.01,2013-04-06 11:30:00,
2013-04-06 05:31:00,63.5,42.9,25.28,North,0,0.0,0.0,47,0.00,,---,0.00,VWS V14.01,2013-04-06 11:31:00,
2013-04-06 05:32:00,63.5,42.9,25.28,North,0,0.0,0.0,47,0.00,,---,0.00,VWS V14.01,2013-04-06 11:32:00,
2013-04-06 05:33:00,63.7,42.5,25.28,North,0,0.0,0.0,46,0.00,,---,0.00,VWS V14.01,2013-04-06 11:33:00,
2013-04-06 05:36:00,63.7,42.5,25.28,North,0,0.0,0.0,46,0.00,,---,0.00,VWS V14.01,2013-04-06 11:36:00,
2013-04-06 05:37:00,63.7,42.5,25.28,North,0,0.0,0.0,46,0.00,,---,0.00,VWS V14.01,2013-04-06 11:37:00,
2013-04-06 05:40:00,63.7,42.5,25.28,North,0,0.0,0.0,46,0.00,,---,0.00,VWS V14.01,2013-04-06 11:40:00,
2013-04-06 05:41:00,63.7,42.5,25.28,North,0,0.0,0.0,46,0.00,,---,0.00,VWS V14.01,2013-04-06 11:41:00,
2013-04-06 05:43:00,63.7,42.5,25.28,North,0,0.0,0.0,46,0.00,,---,0.00,VWS V14.01,2013-04-06 11:43:00,
2013-04-06 05:45:00,63.7,42.5,25.28,North,0,0.0,0.0,46,0.00,,---,0.00,VWS V14.01,2013-04-06 11:45:00,
2013-04-06 05:47:00,63.7,42.5,25.28,North,0,0.0,0.0,46,0.00,,---,0.00,VWS V14.01,2013-04-06 11:47:00,
2013-04-06 05:52:00,64.2,41.9,25.28,North,0,0.0,0.0,44,0.00,,---,0.00,VWS V14.01,2013-04-06 11:52:00,
2013-04-06 05:54:00,64.2,41.9,25.28,North,0,0.0,0.0,44,0.00,,---,0.00,VWS V14.01,2013-04-06 11:54:00,
2013-04-06 05:55:00,64.2,41.9,25.28,North,0,0.0,0.0,44,0.00,,---,0.00,VWS V14.01,2013-04-06 11:55:00,
2013-04-06 05:58:00,64.6,42.2,25.28,North,0,0.0,0.0,44,0.00,,---,0.00,VWS V14.01,2013-04-06 11:58:00,
2013-04-06 05:59:00,64.6,42.2,25.28,North,0,0.0,0.0,44,0.00,,---,0.00,VWS V14.01,2013-04-06 11:59:00,
2013-04-06 06:03:00,64.8,41.8,25.28,North,0,0.0,0.0,43,0.00,,---,0.00,VWS V14.01,2013-04-06 12:03:00,
2013-04-06 06:04:00,64.8,41.8,25.28,North,0,0.0,0.0,43,0.00,,---,0.00,VWS V14.01,2013-04-06 12:04:00,
2013-04-06 06:08:00,64.8,41.8,25.28,North,0,0.0,0.0,43,0.00,,---,0.00,VWS V14.01,2013-04-06 12:08:00,
2013-04-06 06:10:00,64.8,41.8,25.28,North,0,0.0,0.0,43,0.00,,---,0.00,VWS V14.01,2013-04-06 12:10:00,
2013-04-06 06:13:00,64.8,41.8,25.28,North,0,0.0,0.0,43,0.00,,---,0.00,VWS V14.01,2013-04-06 12:13:00,
2013-04-06 06:15:00,65.1,41.5,25.28,North,0,0.0,0.0,42,0.00,,---,0.00,VWS V14.01,2013-04-06 12:15:00,
2013-04-06 06:16:00,65.1,41.5,25.28,North,0,0.0,0.0,42,0.00,,---,0.00,VWS V14.01,2013-04-06 12:16:00,
2013-04-06 06:18:00,65.1,41.5,25.28,North,0,0.0,0.0,42,0.00,,---,0.00,VWS V14.01,2013-04-06 12:18:00,
2013-04-06 06:22:00,64.9,41.9,25.28,North,0,0.0,0.0,43,0.00,,---,0.00,VWS V14.01,2013-04-06 12:22:00,
2013-04-06 06:23:00,64.9,41.9,25.28,North,0,0.0,0.0,43,0.00,,---,0.00,VWS V14.01,2013-04-06 12:23:00,
2013-04-06 06:24:00,64.9,41.9,25.28,North,0,0.0,0.0,43,0.00,,---,0.00,VWS V14.01,2013-04-06 12:24:00,
2013-04-06 06:28:00,64.9,41.9,25.28,North,0,0.0,0.0,43,0.00,,---,0.00,VWS V14.01,2013-04-06 12:28:00,
2013-04-06 06:29:00,64.8,41.2,25.28,North,0,0.0,0.0,42,0.00,,---,0.00,VWS V14.01,2013-04-06 12:29:00,
2013-04-06 06:30:00,64.8,41.2,25.28,North,0,0.0,0.0,42,0.00,,---,0.00,VWS V14.01,2013-04-06 12:30:00,
2013-04-06 06:32:00,64.8,41.2,25.28,North,0,0.0,0.0,42,0.00,,---,0.00,VWS V14.01,2013-04-06 12:32:00,
2013-04-06 06:35:00,64.8,41.2,25.28,North,0,0.0,0.0,42,0.00,,---,0.00,VWS V14.01,2013-04-06 12:35:00,
2013-04-06 06:37:00,64.2,43.6,25.28,North,0,0.0,0.0,47,0.00,,---,0.00,VWS V14.01,2013-04-06 12:37:00,
2013-04-06 06:38:00,64.2,43.6,25.28,North,0,0.0,0.0,47,0.00,,---,0.00,VWS V14.01,2013-04-06 12:38:00,
2013-04-06 06:41:00,64.2,43.6,25.28,North,0,0.0,0.0,47,0.00,,---,0.00,VWS V14.01,2013-04-06 12:41:00,
2013-04-06 06:43:00,63.9,43.8,25.28,North,0,0.0,0.0,48,0.00,,---,0.00,VWS V14.01,2013-04-06 12:43:00,
2013-04-06 06:44:00,63.9,43.8,25.28,North,0,0.0,0.0,48,0.00,,---,0.00,VWS V14.01,2013-04-06 12:44:00,
2013-04-06 06:46:00,63.9,43.8,25.28,North,0,0.0,0.0,48,0.00,,---,0.00,VWS V14.01,2013-04-06 12:46:00,
2013-04-06 06:48:00,63.9,43.8,25.28,North,0,0.0,0.0,48,0.00,,---,0.00,VWS V14.01,2013-04-06 12:48:00,
2013-04-06 06:49:00,63.9,43.8,25.28,North,0,0.0,0.0,48,0.00,,---,0.00,VWS V14.01,2013-04-06 12:49:00,
2013-04-06 06:53:00,63.9,43.8,25.28,North,0,0.0,0.0,48,0.00,,---,0.00,VWS V14.01,2013-04-06 12:53:00,
2013-04-06 06:54:00,63.9,43.8,25.28,North,0,0.0,0.0,48,0.00,,---,0.00,VWS V14.01,2013-04-06 12:54:00,
2013-04-06 06:55:00,63.9,43.8,25.28,North,0,0.0,0.0,48,0.00,,---,0.00,VWS V14.01,2013-04-06 12:55:00,
2013-04-06 07:00:00,63.9,43.8,25.28,North,0,0.0,0.0,48,0.00,,---,0.00,VWS V14.01,2013-04-06 13:00:00,
2013-04-06 07:03:00,63.9,43.8,25.28,North,0,0.0,0.0,48,0.00,,---,0.00,VWS V14.01,2013-04-06 13:03:00,
2013-04-06 07:04:00,63.9,43.8,25.28,North,0,0.0,0.0,48,0.00,,---,0.00,VWS V14.01,2013-04-06 13:04:00,
2013-04-06 07:05:00,63.9,43.8,25.31,North,0,0.0,0.0,48,0.00,,---,0.00,VWS V14.01,2013-04-06 13:05:00,
2013-04-06 07:10:00,62.6,47.6,25.31,North,0,0.0,0.0,58,0.00,,---,0.00,VWS V14.01,2013-04-06 13:10:00,
2013-04-06 07:11:00,62.6,47.6,25.31,North,0,0.0,0.0,58,0.00,,---,0.00,VWS V14.01,2013-04-06 13:11:00,
2013-04-06 07:12:00,62.6,47.6,25.31,North,0,0.0,0.0,58,0.00,,---,0.00,VWS V14.01,2013-04-06 13:12:00,
2013-04-06 07:15:00,62.6,47.2,25.31,North,0,0.0,0.0,57,0.00,,---,0.00,VWS V14.01,2013-04-06 13:15:00,
2013-04-06 07:17:00,62.6,47.2,25.31,North,0,0.0,0.0,57,0.00,,---,0.00,VWS V14.01,2013-04-06 13:17:00,
2013-04-06 07:18:00,62.6,47.2,25.31,North,0,0.0,0.0,57,0.00,,---,0.00,VWS V14.01,2013-04-06 13:18:00,
2013-04-06 07:21:00,62.6,47.2,25.31,North,0,0.0,0.0,57,0.00,,---,0.00,VWS V14.01,2013-04-06 13:21:00,
2013-04-06 07:23:00,62.6,47.2,25.31,North,0,0.0,0.0,57,0.00,,---,0.00,VWS V14.01,2013-04-06 13:23:00,
2013-04-06 07:25:00,62.6,47.2,25.31,North,0,0.0,0.0,57,0.00,,---,0.00,VWS V14.01,2013-04-06 13:25:00,
2013-04-06 07:28:00,62.6,47.2,25.31,North,0,0.0,0.0,57,0.00,,---,0.00,VWS V14.01,2013-04-06 13:28:00,
2013-04-06 07:29:00,62.6,47.2,25.31,North,0,0.0,0.0,57,0.00,,---,0.00,VWS V14.01,2013-04-06 13:29:00,
2013-04-06 07:30:00,64.0,46.6,25.31,North,0,0.0,0.0,53,0.00,,---,0.00,VWS V14.01,2013-04-06 13:30:00,
2013-04-06 07:33:00,64.0,46.6,25.31,North,0,0.0,0.0,53,0.00,,---,0.00,VWS V14.01,2013-04-06 13:33:00,
2013-04-06 07:35:00,64.0,46.6,25.31,North,0,0.0,0.0,53,0.00,,---,0.00,VWS V14.01,2013-04-06 13:35:00,
2013-04-06 07:38:00,64.0,46.6,25.31,North,0,0.0,0.0,53,0.00,,---,0.00,VWS V14.01,2013-04-06 13:38:00,
2013-04-06 07:39:00,64.0,46.6,25.31,North,0,0.0,0.0,53,0.00,,---,0.00,VWS V14.01,2013-04-06 13:39:00,
2013-04-06 07:40:00,64.0,46.6,25.31,North,0,0.0,0.0,53,0.00,,---,0.00,VWS V14.01,2013-04-06 13:40:00,
2013-04-06 07:41:00,64.0,46.6,25.31,North,0,0.0,0.0,53,0.00,,---,0.00,VWS V14.01,2013-04-06 13:41:00,
2013-04-06 07:44:00,66.0,46.3,25.31,North,0,0.0,0.0,49,0.00,,---,0.00,VWS V14.01,2013-04-06 13:44:00,
2013-04-06 07:46:00,66.0,46.3,25.31,North,0,0.0,0.0,49,0.00,,---,0.00,VWS V14.01,2013-04-06 13:46:00,
2013-04-06 07:48:00,66.0,46.3,25.31,North,0,0.0,0.0,49,0.00,,---,0.00,VWS V14.01,2013-04-06 13:48:00,
2013-04-06 07:53:00,68.4,44.4,25.31,North,0,0.0,0.0,42,0.00,,---,0.00,VWS V14.01,2013-04-06 13:53:00,
2013-04-06 07:54:00,68.4,45.0,25.31,North,0,0.0,0.0,43,0.00,,---,0.00,VWS V14.01,2013-04-06 13:54:00,
2013-04-06 07:57:00,68.4,45.0,25.31,North,0,0.0,0.0,43,0.00,,---,0.00,VWS V14.01,2013-04-06 13:57:00,
2013-04-06 08:01:00,68.4,45.0,25.31,North,0,0.0,0.0,43,0.00,,---,0.00,VWS V14.01,2013-04-06 14:01:00,
2013-04-06 08:02:00,68.4,45.0,25.31,North,0,0.0,0.0,43,0.00,,---,0.00,VWS V14.01,2013-04-06 14:02:00,
2013-04-06 08:04:00,68.4,45.0,25.31,North,0,0.0,0.0,43,0.00,,---,0.00,VWS V14.01,2013-04-06 14:04:00,
2013-04-06 08:08:00,68.4,45.0,25.31,North,0,0.0,0.0,43,0.00,,---,0.00,VWS V14.01,2013-04-06 14:08:00,
2013-04-06 08:09:00,68.4,45.0,25.31,North,0,0.0,0.0,43,0.00,,---,0.00,VWS V14.01,2013-04-06 14:09:00,
2013-04-06 08:10:00,69.1,46.3,25.31,North,0,0.0,0.0,44,0.00,,---,0.00,VWS V14.01,2013-04-06 14:10:00,
2013-04-06 08:12:00,69.1,46.3,25.31,North,0,0.0,0.0,44,0.00,,---,0.00,VWS V14.01,2013-04-06 14:12:00,
2013-04-06 08:14:00,69.1,46.3,25.31,North,0,0.0,0.0,44,0.00,,---,0.00,VWS V14.01,2013-04-06 14:14:00,
2013-04-06 08:19:00,69.8,45.7,25.31,North,0,0.0,0.0,42,0.00,,---,0.00,VWS V14.01,2013-04-06 14:19:00,
2013-04-06 08:20:00,69.8,45.7,25.31,North,0,0.0,0.0,42,0.00,,---,0.00,VWS V14.01,2013-04-06 14:20:00,
2013-04-06 08:24:00,69.8,45.7,25.31,North,0,0.0,0.0,42,0.00,,---,0.00,VWS V14.01,2013-04-06 14:24:00,
2013-04-06 08:25:00,69.8,45.7,25.31,North,0,0.0,0.0,42,0.00,,---,0.00,VWS V14.01,2013-04-06 14:25:00,
2013-04-06 08:26:00,69.8,45.7,25.31,North,0,0.0,0.0,42,0.00,,---,0.00,VWS V14.01,2013-04-06 14:26:00,
2013-04-06 08:27:00,69.8,45.7,25.31,North,0,0.0,0.0,42,0.00,,---,0.00,VWS V14.01,2013-04-06 14:27:00,
2013-04-06 08:32:00,69.8,45.7,25.31,North,0,0.0,0.0,42,0.00,,---,0.00,VWS V14.01,2013-04-06 14:32:00,
2013-04-06 08:33:00,69.8,45.7,25.31,North,0,0.0,0.0,42,0.00,,---,0.00,VWS V14.01,2013-04-06 14:33:00,
2013-04-06 08:34:00,69.8,45.7,25.31,North,0,0.0,0.0,42,0.00,,---,0.00,VWS V14.01,2013-04-06 14:34:00,
2013-04-06 08:35:00,69.8,45.7,25.31,North,0,0.0,0.0,42,0.00,,---,0.00,VWS V14.01,2013-04-06 14:35:00,
2013-04-06 08:38:00,69.8,45.7,25.31,North,0,0.0,0.0,42,0.00,,---,0.00,VWS V14.01,2013-04-06 14:38:00,
2013-04-06 08:40:00,69.8,45.7,25.31,North,0,0.0,0.0,42,0.00,,---,0.00,VWS V14.01,2013-04-06 14:40:00,
2013-04-06 08:41:00,69.8,45.7,25.31,North,0,0.0,0.0,42,0.00,,---,0.00,VWS V14.01,2013-04-06 14:41:00,
2013-04-06 08:44:00,69.8,45.7,25.31,North,0,0.0,0.0,42,0.00,,---,0.00,VWS V14.01,2013-04-06 14:44:00,
2013-04-06 08:45:00,69.8,45.7,25.31,North,0,0.0,0.0,42,0.00,,---,0.00,VWS V14.01,2013-04-06 14:45:00,
2013-04-06 08:50:00,69.8,45.7,25.31,North,0,0.0,0.0,42,0.00,,---,0.00,VWS V14.01,2013-04-06 14:50:00,
2013-04-06 08:51:00,69.8,45.7,25.31,North,0,0.0,0.0,42,0.00,,---,0.00,VWS V14.01,2013-04-06 14:51:00,
2013-04-06 08:57:00,69.8,45.7,25.31,North,0,0.0,0.0,42,0.00,,---,0.00,VWS V14.01,2013-04-06 14:57:00,
2013-04-06 08:58:00,69.8,45.7,25.31,North,0,0.0,0.0,42,0.00,,---,0.00,VWS V14.01,2013-04-06 14:58:00,
2013-04-06 08:59:00,69.8,45.7,25.31,North,0,0.0,0.0,42,0.00,,---,0.00,VWS V14.01,2013-04-06 14:59:00,
2013-04-06 09:00:00,69.8,45.7,25.31,North,0,0.0,0.0,42,0.00,,---,0.00,VWS V14.01,2013-04-06 15:00:00,
2013-04-06 09:04:00,69.8,45.7,25.31,North,0,0.0,0.0,42,0.00,,---,0.00,VWS V14.01,2013-04-06 15:04:00,
2013-04-06 09:05:00,69.8,45.7,25.31,North,0,0.0,0.0,42,0.00,,---,0.00,VWS V14.01,2013-04-06 15:05:00,
2013-04-06 09:07:00,69.8,45.7,25.31,North,0,0.0,0.0,42,0.00,,---,0.00,VWS V14.01,2013-04-06 15:07:00,
2013-04-06 09:10:00,69.8,45.7,25.31,North,0,0.0,0.0,42,0.00,,---,0.00,VWS V14.01,2013-04-06 15:10:00,
2013-04-06 09:11:00,69.8,45.7,25.31,North,0,0.0,0.0,42,0.00,,---,0.00,VWS V14.01,2013-04-06 15:11:00,
2013-04-06 09:12:00,69.8,45.7,25.31,North,0,0.0,0.0,42,0.00,,---,0.00,VWS V14.01,2013-04-06 15:12:00,
2013-04-06 09:15:00,69.8,45.7,25.31,North,0,0.0,0.0,42,0.00,,---,0.00,VWS V14.01,2013-04-06 15:15:00,
2013-04-06 09:18:00,69.8,45.7,25.31,North,0,0.0,0.0,42,0.00,,---,0.00,VWS V14.01,2013-04-06 15:18:00,
2013-04-06 09:20:00,69.8,45.7,25.31,North,0,0.0,0.0,42,0.00,,---,0.00,VWS V14.01,2013-04-06 15:20:00,
2013-04-06 09:22:00,69.8,45.7,25.31,North,0,0.0,0.0,42,0.00,,---,0.00,VWS V14.01,2013-04-06 15:22:00,
2013-04-06 09:25:00,69.8,45.7,25.31,North,0,0.0,0.0,42,0.00,,---,0.00,VWS V14.01,2013-04-06 15:25:00,
2013-04-06 09:26:00,69.8,45.7,25.31,North,0,0.0,0.0,42,0.00,,---,0.00,VWS V14.01,2013-04-06 15:26:00,
2013-04-06 09:30:00,69.8,45.7,25.31,North,0,0.0,0.0,42,0.00,,---,0.00,VWS V14.01,2013-04-06 15:30:00,
2013-04-06 09:31:00,69.8,45.7,25.31,North,0,0.0,0.0,42,0.00,,---,0.00,VWS V14.01,2013-04-06 15:31:00,
2013-04-06 09:32:00,69.8,45.7,25.31,North,0,0.0,0.0,42,0.00,,---,0.00,VWS V14.01,2013-04-06 15:32:00,
2013-04-06 09:36:00,69.8,45.7,25.31,North,0,0.0,0.0,42,0.00,,---,0.00,VWS V14.01,2013-04-06 15:36:00,
2013-04-06 09:37:00,69.8,45.7,25.31,North,0,0.0,0.0,42,0.00,,---,0.00,VWS V14.01,2013-04-06 15:37:00,
2013-04-06 09:39:00,69.8,45.7,25.31,North,0,0.0,0.0,42,0.00,,---,0.00,VWS V14.01,2013-04-06 15:39:00,
2013-04-06 09:40:00,69.8,45.7,25.31,North,0,0.0,0.0,42,0.00,,---,0.00,VWS V14.01,2013-04-06 15:40:00,
2013-04-06 09:42:00,69.8,45.7,25.31,North,0,0.0,0.0,42,0.00,,---,0.00,VWS V14.01,2013-04-06 15:42:00,
2013-04-06 09:45:00,69.8,45.7,25.31,North,0,0.0,0.0,42,0.00,,---,0.00,VWS V14.01,2013-04-06 15:45:00,
2013-04-06 09:48:00,69.8,45.7,25.31,North,0,0.0,0.0,42,0.00,,---,0.00,VWS V14.01,2013-04-06 15:48:00,
2013-04-06 09:49:00,69.8,45.7,25.31,North,0,0.0,0.0,42,0.00,,---,0.00,VWS V14.01,2013-04-06 15:49:00,
2013-04-06 09:53:00,69.8,45.7,25.31,North,0,0.0,0.0,42,0.00,,---,0.00,VWS V14.01,2013-04-06 15:53:00,
2013-04-06 09:54:00,69.8,45.7,25.31,North,0,0.0,0.0,42,0.00,,---,0.00,VWS V14.01,2013-04-06 15:54:00,
2013-04-06 09:56:00,69.8,45.7,25.31,North,0,0.0,0.0,42,0.00,,---,0.00,VWS V14.01,2013-04-06 15:56:00,
2013-04-06 09:58:00,69.8,45.7,25.31,North,0,0.0,0.0,42,0.00,,---,0.00,VWS V14.01,2013-04-06 15:58:00,
2013-04-06 10:00:00,69.8,45.7,25.31,North,0,0.0,0.0,42,0.00,,---,0.00,VWS V14.01,2013-04-06 16:00:00,
2013-04-06 10:02:00,69.8,45.7,25.31,North,0,0.0,0.0,42,0.00,,---,0.00,VWS V14.01,2013-04-06 16:02:00,
2013-04-06 10:04:00,69.8,45.7,25.31,North,0,0.0,0.0,42,0.00,,---,0.00,VWS V14.01,2013-04-06 16:04:00,
2013-04-06 10:05:00,69.8,45.7,25.31,North,0,0.0,0.0,42,0.00,,---,0.00,VWS V14.01,2013-04-06 16:05:00,
2013-04-06 10:06:00,69.8,45.7,25.31,North,0,0.0,0.0,42,0.00,,---,0.00,VWS V14.01,2013-04-06 16:06:00,
2013-04-06 10:11:00,74.7,42.9,25.31,North,0,0.0,0.0,32,0.00,,---,0.00,VWS V14.01,2013-04-06 16:11:00,
2013-04-06 10:12:00,74.7,42.9,25.31,North,0,0.0,0.0,32,0.00,,---,0.00,VWS V14.01,2013-04-06 16:12:00,
2013-04-06 10:14:00,74.5,42.7,25.31,North,0,0.0,0.0,32,0.00,,---,0.00,VWS V14.01,2013-04-06 16:14:00,
2013-04-06 10:18:00,74.5,42.7,25.31,North,0,0.0,0.0,32,0.00,,---,0.00,VWS V14.01,2013-04-06 16:18:00,
2013-04-06 10:19:00,74.5,42.7,25.31,North,0,0.0,0.0,32,0.00,,---,0.00,VWS V14.01,2013-04-06 16:19:00,
2013-04-06 10:20:00,74.5,42.7,25.31,North,0,0.0,0.0,32,0.00,,---,0.00,VWS V14.01,2013-04-06 16:20:00,
2013-04-06 10:22:00,74.5,42.7,25.31,North,0,0.0,0.0,32,0.00,,---,0.00,VWS V14.01,2013-04-06 16:22:00,
2013-04-06 10:24:00,74.5,42.7,25.31,North,0,0.0,0.0,32,0.00,,---,0.00,VWS V14.01,2013-04-06 16:24:00,
2013-04-06 10:25:00,74.5,42.7,25.31,North,0,0.0,0.0,32,0.00,,---,0.00,VWS V14.01,2013-04-06 16:25:00,
2013-04-06 10:29:00,74.5,42.7,25.31,North,0,0.0,0.0,32,0.00,,---,0.00,VWS V14.01,2013-04-06 16:29:00,
2013-04-06 10:33:00,74.5,42.7,25.31,North,0,0.0,0.0,32,0.00,,---,0.00,VWS V14.01,2013-04-06 16:33:00,
2013-04-06 10:34:00,74.5,42.7,25.31,North,0,0.0,0.0,32,0.00,,---,0.00,VWS V14.01,2013-04-06 16:34:00,
2013-04-06 10:37:00,74.5,42.7,25.31,North,0,0.0,0.0,32,0.00,,---,0.00,VWS V14.01,2013-04-06 16:37:00,
2013-04-06 10:40:00,74.5,42.7,25.31,North,0,0.0,0.0,32,0.00,,---,0.00,VWS V14.01,2013-04-06 16:40:00,
2013-04-06 10:42:00,74.5,42.7,25.31,North,0,0.0,0.0,32,0.00,,---,0.00,VWS V14.01,2013-04-06 16:42:00,
2013-04-06 10:43:00,74.5,42.7,25.31,North,0,0.0,0.0,32,0.00,,---,0.00,VWS V14.01,2013-04-06 16:43:00,
2013-04-06 10:45:00,74.5,42.7,25.31,North,0,0.0,0.0,32,0.00,,---,0.00,VWS V14.01,2013-04-06 16:45:00,
2013-04-06 10:48:00,74.5,42.7,25.31,North,0,0.0,0.0,32,0.00,,---,0.00,VWS V14.01,2013-04-06 16:48:00,
2013-04-06 10:53:00,74.5,42.7,25.31,North,0,0.0,0.0,32,0.00,,---,0.00,VWS V14.01,2013-04-06 16:53:00,
2013-04-06 10:55:00,74.5,42.7,25.31,North,0,0.0,0.0,32,0.00,,---,0.00,VWS V14.01,2013-04-06 16:55:00,
2013-04-06 10:58:00,75.2,44.2,25.31,North,0,0.0,0.0,33,0.00,,---,0.00,VWS V14.01,2013-04-06 16:58:00,
2013-04-06 10:59:00,75.2,44.2,25.31,North,0,0.0,0.0,33,0.00,,---,0.00,VWS V14.01,2013-04-06 16:59:00,
2013-04-06 11:02:00,75.9,44.0,25.31,North,0,0.0,0.0,32,0.00,,---,0.00,VWS V14.01,2013-04-06 17:02:00,
2013-04-06 11:03:00,75.9,44.0,25.31,North,0,0.0,0.0,32,0.00,,---,0.00,VWS V14.01,2013-04-06 17:03:00,
2013-04-06 11:05:00,75.9,44.0,25.31,North,0,0.0,0.0,32,0.00,,---,0.00,VWS V14.01,2013-04-06 17:05:00,
2013-04-06 11:08:00,75.9,44.0,25.31,North,0,0.0,0.0,32,0.00,,---,0.00,VWS V14.01,2013-04-06 17:08:00,
2013-04-06 11:13:00,75.9,44.0,25.31,North,0,0.0,0.0,32,0.00,,---,0.00,VWS V14.01,2013-04-06 17:13:00,
2013-04-06 11:14:00,75.9,44.0,25.31,North,0,0.0,0.0,32,0.00,,---,0.00,VWS V14.01,2013-04-06 17:14:00,
2013-04-06 11:15:00,75.9,44.0,25.31,North,0,0.0,0.0,32,0.00,,---,0.00,VWS V14.01,2013-04-06 17:15:00,
2013-04-06 11:16:00,75.9,44.0,25.31,North,0,0.0,0.0,32,0.00,,---,0.00,VWS V14.01,2013-04-06 17:16:00,
2013-04-06 11:22:00,75.9,44.0,25.31,North,0,0.0,0.0,32,0.00,,---,0.00,VWS V14.01,2013-04-06 17:22:00,
2013-04-06 11:24:00,75.9,44.0,25.28,North,0,0.0,0.0,32,0.00,,---,0.00,VWS V14.01,2013-04-06 17:24:00,
2013-04-06 11:28:00,75.9,44.0,25.28,North,0,0.0,0.0,32,0.00,,---,0.00,VWS V14.01,2013-04-06 17:28:00,
2013-04-06 11:30:00,75.9,44.0,25.28,North,0,0.0,0.0,32,0.00,,---,0.00,VWS V14.01,2013-04-06 17:30:00,
2013-04-06 11:32:00,75.9,44.0,25.28,North,0,0.0,0.0,32,0.00,,---,0.00,VWS V14.01,2013-04-06 17:32:00,
2013-04-06 11:35:00,77.5,46.2,25.28,North,0,0.0,0.0,33,0.00,,---,0.00,VWS V14.01,2013-04-06 17:35:00,
2013-04-06 11:37:00,77.5,46.2,25.28,North,0,0.0,0.0,33,0.00,,---,0.00,VWS V14.01,2013-04-06 17:37:00,
2013-04-06 11:38:00,77.5,46.2,25.28,North,0,0.0,0.0,33,0.00,,---,0.00,VWS V14.01,2013-04-06 17:38:00,
2013-04-06 11:39:00,77.5,46.2,25.28,North,0,0.0,0.0,33,0.00,,---,0.00,VWS V14.01,2013-04-06 17:39:00,
2013-04-06 11:40:00,77.5,46.2,25.28,North,0,0.0,0.0,33,0.00,,---,0.00,VWS V14.01,2013-04-06 17:40:00,
2013-04-06 11:47:00,77.5,46.2,25.28,North,0,0.0,0.0,33,0.00,,---,0.00,VWS V14.01,2013-04-06 17:47:00,
2013-04-06 11:48:00,77.5,46.2,25.28,North,0,0.0,0.0,33,0.00,,---,0.00,VWS V14.01,2013-04-06 17:48:00,
2013-04-06 11:50:00,77.5,46.2,25.28,North,0,0.0,0.0,33,0.00,,---,0.00,VWS V14.01,2013-04-06 17:50:00,
2013-04-06 11:52:00,77.5,46.2,25.28,North,0,0.0,0.0,33,0.00,,---,0.00,VWS V14.01,2013-04-06 17:52:00,
2013-04-06 11:53:00,77.5,46.2,25.28,North,0,0.0,0.0,33,0.00,,---,0.00,VWS V14.01,2013-04-06 17:53:00,
2013-04-06 11:56:00,77.5,46.2,25.28,North,0,0.0,0.0,33,0.00,,---,0.00,VWS V14.01,2013-04-06 17:56:00,
2013-04-06 11:58:00,77.5,46.2,25.28,North,0,0.0,0.0,33,0.00,,---,0.00,VWS V14.01,2013-04-06 17:58:00,
2013-04-06 12:01:00,77.5,46.2,25.28,North,0,0.0,0.0,33,0.00,,---,0.00,VWS V14.01,2013-04-06 18:01:00,
2013-04-06 12:04:00,74.7,46.0,25.28,North,0,0.0,0.0,36,0.00,,---,0.00,VWS V14.01,2013-04-06 18:04:00,
2013-04-06 12:07:00,74.7,46.0,25.28,North,0,0.0,0.0,36,0.00,,---,0.00,VWS V14.01,2013-04-06 18:07:00,
2013-04-06 12:09:00,74.7,46.0,25.28,North,0,0.0,0.0,36,0.00,,---,0.00,VWS V14.01,2013-04-06 18:09:00,
2013-04-06 12:13:00,74.3,44.9,25.28,North,0,0.0,0.0,35,0.00,,---,0.00,VWS V14.01,2013-04-06 18:13:00,
2013-04-06 12:15:00,74.3,44.9,25.28,North,0,0.0,0.0,35,0.00,,---,0.00,VWS V14.01,2013-04-06 18:15:00,
2013-04-06 12:18:00,74.3,44.9,25.28,North,0,0.0,0.0,35,0.00,,---,0.00,VWS V14.01,2013-04-06 18:18:00,
2013-04-06 12:23:00,74.3,44.9,25.28,North,0,0.0,0.0,35,0.00,,---,0.00,VWS V14.01,2013-04-06 18:23:00,
2013-04-06 12:24:00,74.3,44.9,25.28,North,0,0.0,0.0,35,0.00,,---,0.00,VWS V14.01,2013-04-06 18:24:00,
2013-04-06 12:28:00,74.3,44.9,25.28,North,0,0.0,0.0,35,0.00,,---,0.00,VWS V14.01,2013-04-06 18:28:00,
2013-04-06 12:29:00,74.3,44.9,25.28,North,0,0.0,0.0,35,0.00,,---,0.00,VWS V14.01,2013-04-06 18:29:00,
2013-04-06 12:30:00,74.3,44.9,25.28,North,0,0.0,0.0,35,0.00,,---,0.00,VWS V14.01,2013-04-06 18:30:00,
2013-04-06 12:35:00,72.3,46.0,25.28,North,0,0.0,0.0,39,0.00,,---,0.00,VWS V14.01,2013-04-06 18:35:00,
2013-04-06 12:36:00,72.3,46.0,25.28,North,0,0.0,0.0,39,0.00,,---,0.00,VWS V14.01,2013-04-06 18:36:00,
2013-04-06 12:37:00,72.3,46.0,25.28,North,0,0.0,0.0,39,0.00,,---,0.00,VWS V14.01,2013-04-06 18:37:00,
2013-04-06 12:39:00,72.3,46.0,25.28,North,0,0.0,0.0,39,0.00,,---,0.00,VWS V14.01,2013-04-06 18:39:00,
2013-04-06 12:44:00,72.3,46.0,25.28,North,0,0.0,0.0,39,0.00,,---,0.00,VWS V14.01,2013-04-06 18:44:00,
2013-04-06 12:45:00,72.3,46.0,25.28,North,0,0.0,0.0,39,0.00,,---,0.00,VWS V14.01,2013-04-06 18:45:00,
2013-04-06 12:46:00,72.3,46.0,25.28,North,0,0.0,0.0,39,0.00,,---,0.00,VWS V14.01,2013-04-06 18:46:00,
2013-04-06 12:48:00,72.3,46.0,25.28,North,0,0.0,0.0,39,0.00,,---,0.00,VWS V14.01,2013-04-06 18:48:00,
2013-04-06 12:51:00,72.3,46.0,25.28,North,0,0.0,0.0,39,0.00,,---,0.00,VWS V14.01,2013-04-06 18:51:00,
2013-04-06 12:52:00,72.3,46.0,25.28,North,0,0.0,0.0,39,0.00,,---,0.00,VWS V14.01,2013-04-06 18:52:00,
2013-04-06 12:53:00,72.3,46.0,25.28,North,0,0.0,0.0,39,0.00,,---,0.00,VWS V14.01,2013-04-06 18:53:00,
2013-04-06 12:54:00,72.3,46.0,25.25,North,0,0.0,0.0,39,0.00,,---,0.00,VWS V14.01,2013-04-06 18:54:00,
2013-04-06 12:57:00,72.3,46.0,25.25,North,0,0.0,0.0,39,0.00,,---,0.00,VWS V14.01,2013-04-06 18:57:00,
2013-04-06 12:58:00,73.8,47.3,25.25,North,0,0.0,0.0,39,0.00,,---,0.00,VWS V14.01,2013-04-06 18:58:00,
2013-04-06 13:00:00,73.8,47.3,25.25,North,0,0.0,0.0,39,0.00,,---,0.00,VWS V14.01,2013-04-06 19:00:00,
2013-04-06 13:03:00,73.8,47.3,25.25,North,0,0.0,0.0,39,0.00,,---,0.00,VWS V14.01,2013-04-06 19:03:00,
2013-04-06 13:04:00,73.8,47.3,25.25,North,0,0.0,0.0,39,0.00,,---,0.00,VWS V14.01,2013-04-06 19:04:00,
2013-04-06 13:06:00,73.8,47.3,25.25,North,0,0.0,0.0,39,0.00,,---,0.00,VWS V14.01,2013-04-06 19:06:00,
2013-04-06 13:09:00,73.8,47.3,25.25,North,0,0.0,0.0,39,0.00,,---,0.00,VWS V14.01,2013-04-06 19:09:00,
2013-04-06 13:10:00,73.8,47.3,25.25,North,0,0.0,0.0,39,0.00,,---,0.00,VWS V14.01,2013-04-06 19:10:00,
2013-04-06 13:13:00,73.8,47.3,25.25,North,0,0.0,0.0,39,0.00,,---,0.00,VWS V14.01,2013-04-06 19:13:00,
2013-04-06 13:15:00,73.8,47.3,25.25,North,0,0.0,0.0,39,0.00,,---,0.00,VWS V14.01,2013-04-06 19:15:00,
2013-04-06 13:17:00,73.8,47.3,25.25,North,0,0.0,0.0,39,0.00,,---,0.00,VWS V14.01,2013-04-06 19:17:00,
2013-04-06 13:22:00,73.8,47.3,25.25,North,0,0.0,0.0,39,0.00,,---,0.00,VWS V14.01,2013-04-06 19:22:00,
2013-04-06 13:23:00,73.8,47.3,25.25,North,0,0.0,0.0,39,0.00,,---,0.00,VWS V14.01,2013-04-06 19:23:00,
2013-04-06 13:24:00,73.8,47.3,25.25,North,0,0.0,0.0,39,0.00,,---,0.00,VWS V14.01,2013-04-06 19:24:00,
2013-04-06 13:26:00,73.8,47.3,25.25,North,0,0.0,0.0,39,0.00,,---,0.00,VWS V14.01,2013-04-06 19:26:00,
2013-04-06 13:29:00,73.8,47.3,25.25,North,0,0.0,0.0,39,0.00,,---,0.00,VWS V14.01,2013-04-06 19:29:00,
2013-04-06 13:33:00,73.8,47.3,25.25,North,0,0.0,0.0,39,0.00,,---,0.00,VWS V14.01,2013-04-06 19:33:00,
2013-04-06 13:35:00,73.8,47.3,25.25,North,0,0.0,0.0,39,0.00,,---,0.00,VWS V14.01,2013-04-06 19:35:00,
2013-04-06 13:37:00,73.8,47.3,25.25,North,0,0.0,0.0,39,0.00,,---,0.00,VWS V14.01,2013-04-06 19:37:00,
2013-04-06 13:39:00,73.8,47.3,25.25,North,0,0.0,0.0,39,0.00,,---,0.00,VWS V14.01,2013-04-06 19:39:00,
2013-04-06 13:40:00,73.8,47.3,25.25,North,0,0.0,0.0,39,0.00,,---,0.00,VWS V14.01,2013-04-06 19:40:00,
2013-04-06 13:42:00,73.8,47.3,25.25,North,0,0.0,0.0,39,0.00,,---,0.00,VWS V14.01,2013-04-06 19:42:00,
2013-04-06 13:45:00,74.3,46.4,25.25,North,0,0.0,0.0,37,0.00,,---,0.00,VWS V14.01,2013-04-06 19:45:00,
2013-04-06 13:49:00,74.3,46.4,25.25,North,0,0.0,0.0,37,0.00,,---,0.00,VWS V14.01,2013-04-06 19:49:00,
2013-04-06 13:51:00,74.3,46.4,25.25,North,0,0.0,0.0,37,0.00,,---,0.00,VWS V14.01,2013-04-06 19:51:00,
2013-04-06 13:53:00,74.3,46.4,25.25,North,0,0.0,0.0,37,0.00,,---,0.00,VWS V14.01,2013-04-06 19:53:00,
2013-04-06 13:54:00,74.3,46.4,25.25,North,0,0.0,0.0,37,0.00,,---,0.00,VWS V14.01,2013-04-06 19:54:00,
2013-04-06 13:56:00,74.3,46.4,25.25,North,0,0.0,0.0,37,0.00,,---,0.00,VWS V14.01,2013-04-06 19:56:00,
2013-04-06 13:59:00,74.1,44.8,25.25,North,0,0.0,0.0,35,0.00,,---,0.00,VWS V14.01,2013-04-06 19:59:00,
2013-04-06 14:00:00,74.1,44.8,25.25,North,0,0.0,0.0,35,0.00,,---,0.00,VWS V14.01,2013-04-06 20:00:00,
2013-04-06 14:02:00,74.1,44.8,25.25,North,0,0.0,0.0,35,0.00,,---,0.00,VWS V14.01,2013-04-06 20:02:00,
2013-04-06 14:04:00,74.1,44.8,25.25,North,0,0.0,0.0,35,0.00,,---,0.00,VWS V14.01,2013-04-06 20:04:00,
2013-04-06 14:07:00,74.1,44.8,25.22,North,0,0.0,0.0,35,0.00,,---,0.00,VWS V14.01,2013-04-06 20:07:00,
2013-04-06 14:08:00,74.1,44.8,25.22,North,0,0.0,0.0,35,0.00,,---,0.00,VWS V14.01,2013-04-06 20:08:00,
2013-04-06 14:10:00,74.7,45.2,25.22,North,0,0.0,0.0,35,0.00,,---,0.00,VWS V14.01,2013-04-06 20:10:00,
2013-04-06 14:13:00,74.7,45.2,25.22,North,0,0.0,0.0,35,0.00,,---,0.00,VWS V14.01,2013-04-06 20:13:00,
2013-04-06 14:16:00,74.7,45.2,25.22,North,0,0.0,0.0,35,0.00,,---,0.00,VWS V14.01,2013-04-06 20:16:00,
2013-04-06 14:17:00,74.7,45.2,25.22,North,0,0.0,0.0,35,0.00,,---,0.00,VWS V14.01,2013-04-06 20:17:00,
2013-04-06 14:18:00,74.7,45.2,25.22,North,0,0.0,0.0,35,0.00,,---,0.00,VWS V14.01,2013-04-06 20:18:00,
2013-04-06 14:19:00,74.7,45.2,25.22,North,0,0.0,0.0,35,0.00,,---,0.00,VWS V14.01,2013-04-06 20:19:00,
2013-04-06 14:24:00,74.7,45.2,25.22,North,0,0.0,0.0,35,0.00,,---,0.00,VWS V14.01,2013-04-06 20:24:00,
2013-04-06 14:25:00,74.7,45.2,25.22,North,0,0.0,0.0,35,0.00,,---,0.00,VWS V14.01,2013-04-06 20:25:00,
2013-04-06 14:27:00,74.7,45.2,25.22,North,0,0.0,0.0,35,0.00,,---,0.00,VWS V14.01,2013-04-06 20:27:00,
2013-04-06 14:30:00,75.4,44.3,25.22,North,0,0.0,0.0,33,0.00,,---,0.00,VWS V14.01,2013-04-06 20:30:00,
2013-04-06 14:31:00,75.4,44.3,25.22,North,0,0.0,0.0,33,0.00,,---,0.00,VWS V14.01,2013-04-06 20:31:00,
2013-04-06 14:33:00,75.4,44.3,25.22,North,0,0.0,0.0,33,0.00,,---,0.00,VWS V14.01,2013-04-06 20:33:00,
2013-04-06 14:36:00,75.2,46.4,25.22,North,0,0.0,0.0,36,0.00,,---,0.00,VWS V14.01,2013-04-06 20:36:00,
2013-04-06 14:37:00,75.2,46.4,25.22,North,0,0.0,0.0,36,0.00,,---,0.00,VWS V14.01,2013-04-06 20:37:00,
2013-04-06 14:38:00,75.2,46.4,25.22,North,0,0.0,0.0,36,0.00,,---,0.00,VWS V14.01,2013-04-06 20:38:00,
2013-04-06 14:43:00,75.2,46.4,25.22,North,0,0.0,0.0,36,0.00,,---,0.00,VWS V14.01,2013-04-06 20:43:00,
2013-04-06 14:44:00,75.2,46.4,25.22,North,0,0.0,0.0,36,0.00,,---,0.00,VWS V14.01,2013-04-06 20:44:00,
2013-04-06 14:45:00,75.2,46.4,25.22,North,0,0.0,0.0,36,0.00,,---,0.00,VWS V14.01,2013-04-06 20:45:00,
2013-04-06 14:47:00,75.2,46.4,25.22,North,0,0.0,0.0,36,0.00,,---,0.00,VWS V14.01,2013-04-06 20:47:00,
2013-04-06 14:52:00,73.9,46.0,25.22,North,0,0.0,0.0,37,0.00,,---,0.00,VWS V14.01,2013-04-06 20:52:00,
2013-04-06 14:55:00,73.9,46.0,25.22,North,0,0.0,0.0,37,0.00,,---,0.00,VWS V14.01,2013-04-06 20:55:00,
2013-04-06 14:57:00,73.9,46.0,25.22,North,0,0.0,0.0,37,0.00,,---,0.00,VWS V14.01,2013-04-06 20:57:00,
2013-04-06 14:59:00,73.4,46.3,25.22,North,0,0.0,0.0,38,0.00,,---,0.00,VWS V14.01,2013-04-06 20:59:00,
2013-04-06 15:02:00,73.4,46.3,25.22,North,0,0.0,0.0,38,0.00,,---,0.00,VWS V14.01,2013-04-06 21:02:00,
2013-04-06 15:03:00,73.4,46.3,25.22,North,0,0.0,0.0,38,0.00,,---,0.00,VWS V14.01,2013-04-06 21:03:00,
2013-04-06 15:04:00,73.4,46.3,25.22,North,0,0.0,0.0,38,0.00,,---,0.00,VWS V14.01,2013-04-06 21:04:00,
2013-04-06 15:06:00,72.7,47.7,25.22,North,0,0.0,0.0,41,0.00,,---,0.00,VWS V14.01,2013-04-06 21:06:00,
2013-04-06 15:08:00,72.7,47.7,25.22,North,0,0.0,0.0,41,0.00,,---,0.00,VWS V14.01,2013-04-06 21:08:00,
2013-04-06 15:10:00,72.7,47.7,25.22,North,0,0.0,0.0,41,0.00,,---,0.00,VWS V14.01,2013-04-06 21:10:00,
2013-04-06 15:13:00,72.7,47.7,25.22,North,0,0.0,0.0,41,0.00,,---,0.00,VWS V14.01,2013-04-06 21:13:00,
2013-04-06 15:16:00,72.7,47.7,25.22,North,0,0.0,0.0,41,0.00,,---,0.00,VWS V14.01,2013-04-06 21:16:00,
2013-04-06 15:17:00,72.7,47.7,25.22,North,0,0.0,0.0,41,0.00,,---,0.00,VWS V14.01,2013-04-06 21:17:00,
2013-04-06 15:19:00,72.1,47.8,25.22,North,0,0.0,0.0,42,0.00,,---,0.00,VWS V14.01,2013-04-06 21:19:00,
2013-04-06 15:22:00,72.1,47.8,25.22,North,0,0.0,0.0,42,0.00,,---,0.00,VWS V14.01,2013-04-06 21:22:00,
2013-04-06 15:23:00,72.1,47.8,25.22,North,0,0.0,0.0,42,0.00,,---,0.00,VWS V14.01,2013-04-06 21:23:00,
2013-04-06 15:27:00,71.6,47.3,25.22,North,0,0.0,0.0,42,0.00,,---,0.00,VWS V14.01,2013-04-06 21:27:00,
2013-04-06 15:28:00,71.6,47.3,25.22,North,0,0.0,0.0,42,0.00,,---,0.00,VWS V14.01,2013-04-06 21:28:00,
2013-04-06 15:35:00,71.6,47.3,25.22,North,0,0.0,0.0,42,0.00,,---,0.00,VWS V14.01,2013-04-06 21:35:00,
2013-04-06 15:36:00,71.1,48.1,25.22,North,0,0.0,0.0,44,0.00,,---,0.00,VWS V14.01,2013-04-06 21:36:00,
2013-04-06 15:40:00,71.1,48.1,25.22,North,0,0.0,0.0,44,0.00,,---,0.00,VWS V14.01,2013-04-06 21:40:00,
2013-04-06 15:42:00,71.1,48.1,25.22,North,0,0.0,0.0,44,0.00,,---,0.00,VWS V14.01,2013-04-06 21:42:00,
2013-04-06 15:46:00,70.9,47.9,25.22,North,0,0.0,0.0,44,0.00,,---,0.00,VWS V14.01,2013-04-06 21:46:00,
2013-04-06 15:48:00,70.9,47.9,25.22,North,0,0.0,0.0,44,0.00,,---,0.00,VWS V14.01,2013-04-06 21:48:00,
2013-04-06 15:49:00,70.9,47.9,25.22,North,0,0.0,0.0,44,0.00,,---,0.00,VWS V14.01,2013-04-06 21:49:00,
2013-04-06 15:54:00,70.3,48.6,25.22,North,0,0.0,0.0,46,0.00,,---,0.00,VWS V14.01,2013-04-06 21:54:00,
2013-04-06 15:56:00,70.3,48.6,25.22,North,0,0.0,0.0,46,0.00,,---,0.00,VWS V14.01,2013-04-06 21:56:00,
2013-04-06 15:58:00,70.3,48.6,25.19,North,0,0.0,0.0,46,0.00,,---,0.00,VWS V14.01,2013-04-06 21:58:00,
2013-04-06 16:00:00,70.3,48.6,25.19,North,0,0.0,0.0,46,0.00,,---,0.00,VWS V14.01,2013-04-06 22:00:00,
2013-04-06 16:01:00,70.3,48.6,25.19,North,0,0.0,0.0,46,0.00,,---,0.00,VWS V14.01,2013-04-06 22:01:00,
2013-04-06 16:04:00,70.0,48.8,25.19,North,0,0.0,0.0,47,0.00,,---,0.00,VWS V14.01,2013-04-06 22:04:00,
2013-04-06 16:06:00,69.8,48.7,25.19,North,0,0.0,0.0,47,0.00,,---,0.00,VWS V14.01,2013-04-06 22:06:00,
2013-04-06 16:07:00,69.8,48.7,25.19,North,0,0.0,0.0,47,0.00,,---,0.00,VWS V14.01,2013-04-06 22:07:00,
2013-04-06 16:08:00,69.8,48.7,25.19,North,0,0.0,0.0,47,0.00,,---,0.00,VWS V14.01,2013-04-06 22:08:00,
2013-04-06 16:13:00,69.8,48.7,25.19,North,0,0.0,0.0,47,0.00,,---,0.00,VWS V14.01,2013-04-06 22:13:00,
2013-04-06 16:15:00,69.8,48.7,25.19,North,0,0.0,0.0,47,0.00,,---,0.00,VWS V14.01,2013-04-06 22:15:00,
2013-04-06 16:16:00,69.8,48.7,25.19,North,0,0.0,0.0,47,0.00,,---,0.00,VWS V14.01,2013-04-06 22:16:00,
2013-04-06 16:18:00,69.8,48.7,25.19,North,0,0.0,0.0,47,0.00,,---,0.00,VWS V14.01,2013-04-06 22:18:00,
2013-04-06 16:21:00,68.9,49.5,25.19,North,0,0.0,0.0,50,0.00,,---,0.00,VWS V14.01,2013-04-06 22:21:00,
2013-04-06 16:24:00,68.9,49.5,25.19,North,0,0.0,0.0,50,0.00,,---,0.00,VWS V14.01,2013-04-06 22:24:00,
2013-04-06 16:25:00,68.9,49.5,25.19,North,0,0.0,0.0,50,0.00,,---,0.00,VWS V14.01,2013-04-06 22:25:00,
2013-04-06 16:27:00,68.9,49.5,25.19,North,0,0.0,0.0,50,0.00,,---,0.00,VWS V14.01,2013-04-06 22:27:00,
2013-04-06 16:28:00,68.5,49.7,25.19,North,0,0.0,0.0,51,0.00,,---,0.00,VWS V14.01,2013-04-06 22:28:00,
2013-04-06 16:30:00,68.5,49.7,25.19,North,0,0.0,0.0,51,0.00,,---,0.00,VWS V14.01,2013-04-06 22:30:00,
2013-04-06 16:33:00,68.4,49.5,25.19,North,0,0.0,0.0,51,0.00,,---,0.00,VWS V14.01,2013-04-06 22:33:00,
2013-04-06 16:34:00,68.4,49.5,25.19,North,0,0.0,0.0,51,0.00,,---,0.00,VWS V14.01,2013-04-06 22:34:00,
2013-04-06 16:38:00,68.4,49.5,25.19,North,0,0.0,0.0,51,0.00,,---,0.00,VWS V14.01,2013-04-06 22:38:00,
2013-04-06 16:39:00,68.4,49.5,25.19,North,0,0.0,0.0,51,0.00,,---,0.00,VWS V14.01,2013-04-06 22:39:00,
2013-04-06 16:40:00,68.4,49.5,25.19,North,0,0.0,0.0,51,0.00,,---,0.00,VWS V14.01,2013-04-06 22:40:00,
2013-04-06 16:42:00,68.4,49.5,25.19,North,0,0.0,0.0,51,0.00,,---,0.00,VWS V14.01,2013-04-06 22:42:00,
2013-04-06 16:45:00,68.4,49.5,25.19,North,0,0.0,0.0,51,0.00,,---,0.00,VWS V14.01,2013-04-06 22:45:00,
2013-04-06 16:47:00,68.4,49.5,25.19,North,0,0.0,0.0,51,0.00,,---,0.00,VWS V14.01,2013-04-06 22:47:00,
2013-04-06 16:49:00,68.4,49.5,25.19,North,0,0.0,0.0,51,0.00,,---,0.00,VWS V14.01,2013-04-06 22:49:00,
2013-04-06 16:50:00,68.4,49.5,25.19,North,0,0.0,0.0,51,0.00,,---,0.00,VWS V14.01,2013-04-06 22:50:00,
2013-04-06 16:53:00,68.4,49.5,25.19,North,0,0.0,0.0,51,0.00,,---,0.00,VWS V14.01,2013-04-06 22:53:00,
2013-04-06 16:58:00,67.8,51.1,25.19,North,0,0.0,0.0,55,0.00,,---,0.00,VWS V14.01,2013-04-06 22:58:00,
2013-04-06 16:59:00,67.8,51.1,25.19,North,0,0.0,0.0,55,0.00,,---,0.00,VWS V14.01,2013-04-06 22:59:00,
2013-04-06 17:00:00,67.8,51.1,25.19,North,0,0.0,0.0,55,0.00,,---,0.00,VWS V14.01,2013-04-06 23:00:00,
2013-04-06 17:04:00,67.8,51.1,25.19,North,0,0.0,0.0,55,0.00,,---,0.00,VWS V14.01,2013-04-06 23:04:00,
2013-04-06 17:05:00,67.8,51.1,25.19,North,0,0.0,0.0,55,0.00,,---,0.00,VWS V14.01,2013-04-06 23:05:00,
2013-04-06 17:07:00,67.8,51.1,25.19,North,0,0.0,0.0,55,0.00,,---,0.00,VWS V14.01,2013-04-06 23:07:00,
2013-04-06 17:12:00,67.8,51.1,25.19,North,0,0.0,0.0,55,0.00,,---,0.00,VWS V14.01,2013-04-06 23:12:00,
2013-04-06 17:13:00,67.8,51.1,25.19,North,0,0.0,0.0,55,0.00,,---,0.00,VWS V14.01,2013-04-06 23:13:00,
2013-04-06 17:18:00,66.7,52.0,25.22,North,0,0.0,0.0,59,0.00,,---,0.00,VWS V14.01,2013-04-06 23:18:00,
2013-04-06 17:19:00,66.7,52.0,25.22,North,0,0.0,0.0,59,0.00,,---,0.00,VWS V14.01,2013-04-06 23:19:00,
2013-04-06 17:20:00,66.7,52.0,25.22,North,0,0.0,0.0,59,0.00,,---,0.00,VWS V14.01,2013-04-06 23:20:00,
2013-04-06 17:24:00,66.7,52.0,25.22,North,0,0.0,0.0,59,0.00,,---,0.00,VWS V14.01,2013-04-06 23:24:00,
2013-04-06 17:25:00,66.7,52.0,25.22,North,0,0.0,0.0,59,0.00,,---,0.00,VWS V14.01,2013-04-06 23:25:00,
2013-04-06 17:27:00,66.7,52.0,25.22,North,0,0.0,0.0,59,0.00,,---,0.00,VWS V14.01,2013-04-06 23:27:00,
2013-04-06 17:28:00,66.7,52.0,25.22,North,0,0.0,0.0,59,0.00,,---,0.00,VWS V14.01,2013-04-06 23:28:00,
2013-04-06 17:33:00,66.0,52.6,25.22,North,0,0.0,0.0,62,0.00,,---,0.00,VWS V14.01,2013-04-06 23:33:00,
2013-04-06 17:34:00,66.0,52.6,25.22,North,0,0.0,0.0,62,0.00,,---,0.00,VWS V14.01,2013-04-06 23:34:00,
2013-04-06 17:39:00,65.5,53.0,25.22,North,0,0.0,0.0,64,0.00,,---,0.00,VWS V14.01,2013-04-06 23:39:00,
2013-04-06 17:40:00,65.5,53.0,25.22,North,0,0.0,0.0,64,0.00,,---,0.00,VWS V14.01,2013-04-06 23:40:00,
2013-04-06 17:42:00,65.5,53.0,25.22,North,0,0.0,0.0,64,0.00,,---,0.00,VWS V14.01,2013-04-06 23:42:00,
2013-04-06 17:44:00,65.3,52.8,25.22,North,0,0.0,0.0,64,0.00,,---,0.00,VWS V14.01,2013-04-06 23:44:00,
2013-04-06 17:46:00,65.3,52.8,25.22,North,0,0.0,0.0,64,0.00,,---,0.00,VWS V14.01,2013-04-06 23:46:00,
2013-04-06 17:47:00,65.3,52.8,25.22,North,0,0.0,0.0,64,0.00,,---,0.00,VWS V14.01,2013-04-06 23:47:00,
2013-04-06 17:48:00,65.3,52.8,25.22,North,0,0.0,0.0,64,0.00,,---,0.00,VWS V14.01,2013-04-06 23:48:00,
2013-04-06 17:51:00,64.9,52.9,25.22,North,0,0.0,0.0,65,0.00,,---,0.00,VWS V14.01,2013-04-06 23:51:00,
2013-04-06 17:55:00,64.9,52.9,25.22,North,0,0.0,0.0,65,0.00,,---,0.00,VWS V14.01,2013-04-06 23:55:00,
2013-04-06 17:56:00,64.9,52.9,25.22,North,0,0.0,0.0,65,0.00,,---,0.00,VWS V14.01,2013-04-06 23:56:00,
2013-04-06 17:57:00,64.9,52.9,25.22,North,0,0.0,0.0,65,0.00,,---,0.00,VWS V14.01,2013-04-06 23:57:00,
2013-04-06 17:59:00,64.8,53.2,25.22,North,0,0.0,0.0,66,0.00,,---,0.00,VWS V14.01,2013-04-06 23:59:00,
2013-04-06 18:02:00,64.8,53.6,25.22,North,0,0.0,0.0,67,0.00,,---,0.00,VWS V14.01,2013-04-07 00:02:00,
2013-04-06 18:05:00,64.8,53.6,25.22,North,0,0.0,0.0,67,0.00,,---,0.00,VWS V14.01,2013-04-07 00:05:00,
2013-04-06 18:07:00,64.8,53.6,25.22,North,0,0.0,0.0,67,0.00,,---,0.00,VWS V14.01,2013-04-07 00:07:00,
2013-04-06 18:08:00,64.8,53.6,25.22,North,0,0.0,0.0,67,0.00,,---,0.00,VWS V14.01,2013-04-07 00:08:00,
2013-04-06 18:12:00,64.8,53.6,25.22,North,0,0.0,0.0,67,0.00,,---,0.00,VWS V14.01,2013-04-07 00:12:00,
2013-04-06 18:13:00,64.8,53.6,25.22,North,0,0.0,0.0,67,0.00,,---,0.00,VWS V14.01,2013-04-07 00:13:00,
2013-04-06 18:14:00,64.8,53.6,25.22,North,0,0.0,0.0,67,0.00,,---,0.00,VWS V14.01,2013-04-07 00:14:00,
2013-04-06 18:16:00,64.8,53.6,25.22,North,0,0.0,0.0,67,0.00,,---,0.00,VWS V14.01,2013-04-07 00:16:00,
2013-04-06 18:18:00,64.8,53.6,25.22,North,0,0.0,0.0,67,0.00,,---,0.00,VWS V14.01,2013-04-07 00:18:00,
2013-04-06 18:19:00,64.4,52.8,25.22,North,0,0.0,0.0,66,0.00,,---,0.00,VWS V14.01,2013-04-07 00:19:00,
2013-04-06 18:22:00,64.4,52.8,25.22,North,0,0.0,0.0,66,0.00,,---,0.00,VWS V14.01,2013-04-07 00:22:00,
2013-04-06 18:24:00,64.4,52.8,25.22,North,0,0.0,0.0,66,0.00,,---,0.00,VWS V14.01,2013-04-07 00:24:00,
2013-04-06 18:25:00,64.2,53.0,25.22,North,0,0.0,0.0,67,0.00,,---,0.00,VWS V14.01,2013-04-07 00:25:00,
2013-04-06 18:27:00,64.2,53.0,25.22,North,0,0.0,0.0,67,0.00,,---,0.00,VWS V14.01,2013-04-07 00:27:00,
2013-04-06 18:28:00,64.2,53.0,25.22,North,0,0.0,0.0,67,0.00,,---,0.00,VWS V14.01,2013-04-07 00:28:00,
2013-04-06 18:30:00,64.2,53.0,25.22,North,0,0.0,0.0,67,0.00,,---,0.00,VWS V14.01,2013-04-07 00:30:00,
2013-04-06 18:32:00,64.2,53.0,25.22,North,0,0.0,0.0,67,0.00,,---,0.00,VWS V14.01,2013-04-07 00:32:00,
2013-04-06 18:33:00,64.2,53.0,25.22,North,0,0.0,0.0,67,0.00,,---,0.00,VWS V14.01,2013-04-07 00:33:00,
2013-04-06 18:35:00,64.2,53.0,25.25,North,0,0.0,0.0,67,0.00,,---,0.00,VWS V14.01,2013-04-07 00:35:00,
2013-04-06 18:39:00,64.2,53.0,25.25,North,0,0.0,0.0,67,0.00,,---,0.00,VWS V14.01,2013-04-07 00:39:00,
2013-04-06 18:40:00,64.0,53.7,25.25,North,0,0.0,0.0,69,0.00,,---,0.00,VWS V14.01,2013-04-07 00:40:00,
2013-04-06 18:43:00,64.0,53.7,25.25,North,0,0.0,0.0,69,0.00,,---,0.00,VWS V14.01,2013-04-07 00:43:00,
2013-04-06 18:46:00,64.0,53.7,25.25,North,0,0.0,0.0,69,0.00,,---,0.00,VWS V14.01,2013-04-07 00:46:00,
2013-04-06 18:48:00,64.0,54.1,25.25,North,0,0.0,0.0,70,0.00,,---,0.00,VWS V14.01,2013-04-07 00:48:00,
2013-04-06 18:50:00,64.0,54.1,25.25,North,0,0.0,0.0,70,0.00,,---,0.00,VWS V14.01,2013-04-07 00:50:00,
2013-04-06 18:53:00,64.0,54.1,25.25,North,0,0.0,0.0,70,0.00,,---,0.00,VWS V14.01,2013-04-07 00:53:00,
2013-04-06 18:56:00,64.0,54.1,25.25,North,0,0.0,0.0,70,0.00,,---,0.00,VWS V14.01,2013-04-07 00:56:00,
2013-04-06 18:57:00,63.9,53.9,25.25,North,0,0.0,0.0,70,0.00,,---,0.00,VWS V14.01,2013-04-07 00:57:00,
2013-04-06 19:00:00,63.9,53.9,25.25,North,0,0.0,0.0,70,0.00,,---,0.00,VWS V14.01,2013-04-07 01:00:00,
2013-04-06 19:04:00,63.9,53.9,25.25,North,0,0.0,0.0,70,0.00,,---,0.00,VWS V14.01,2013-04-07 01:04:00,
2013-04-06 19:05:00,63.9,53.9,25.25,North,0,0.0,0.0,70,0.00,,---,0.00,VWS V14.01,2013-04-07 01:05:00,
2013-04-06 19:08:00,63.9,53.9,25.25,North,0,0.0,0.0,70,0.00,,---,0.00,VWS V14.01,2013-04-07 01:08:00,
2013-04-06 19:11:00,63.9,53.9,25.25,North,0,0.0,0.0,70,0.00,,---,0.00,VWS V14.01,2013-04-07 01:11:00,
2013-04-06 19:12:00,63.9,53.9,25.25,North,0,0.0,0.0,70,0.00,,---,0.00,VWS V14.01,2013-04-07 01:12:00,
2013-04-06 19:14:00,63.9,53.9,25.25,North,0,0.0,0.0,70,0.00,,---,0.00,VWS V14.01,2013-04-07 01:14:00,
2013-04-06 19:17:00,63.9,53.9,25.25,North,0,0.0,0.0,70,0.00,,---,0.00,VWS V14.01,2013-04-07 01:17:00,
2013-04-06 19:20:00,63.9,53.9,25.25,North,0,0.0,0.0,70,0.00,,---,0.00,VWS V14.01,2013-04-07 01:20:00,
2013-04-06 19:22:00,63.9,53.9,25.25,North,0,0.0,0.0,70,0.00,,---,0.00,VWS V14.01,2013-04-07 01:22:00,
2013-04-06 19:23:00,63.9,53.9,25.25,North,0,0.0,0.0,70,0.00,,---,0.00,VWS V14.01,2013-04-07 01:23:00,
2013-04-06 19:24:00,63.9,53.9,25.25,North,0,0.0,0.0,70,0.00,,---,0.00,VWS V14.01,2013-04-07 01:24:00,
2013-04-06 19:28:00,63.9,53.9,25.25,North,0,0.0,0.0,70,0.00,,---,0.00,VWS V14.01,2013-04-07 01:28:00,
2013-04-06 19:29:00,63.9,53.9,25.25,North,0,0.0,0.0,70,0.00,,---,0.00,VWS V14.01,2013-04-07 01:29:00,
2013-04-06 19:30:00,63.9,53.9,25.25,North,0,0.0,0.0,70,0.00,,---,0.00,VWS V14.01,2013-04-07 01:30:00,
2013-04-06 19:33:00,63.9,53.9,25.25,North,0,0.0,0.0,70,0.00,,---,0.00,VWS V14.01,2013-04-07 01:33:00,
2013-04-06 19:34:00,63.9,53.9,25.25,North,0,0.0,0.0,70,0.00,,---,0.00,VWS V14.01,2013-04-07 01:34:00,
2013-04-06 19:38:00,63.5,53.2,25.25,North,0,0.0,0.0,69,0.00,,---,0.00,VWS V14.01,2013-04-07 01:38:00,
2013-04-06 19:39:00,63.5,53.2,25.25,North,0,0.0,0.0,69,0.00,,---,0.00,VWS V14.01,2013-04-07 01:39:00,
2013-04-06 19:42:00,63.5,53.2,25.25,North,0,0.0,0.0,69,0.00,,---,0.00,VWS V14.01,2013-04-07 01:42:00,
2013-04-06 19:44:00,63.5,53.2,25.25,North,0,0.0,0.0,69,0.00,,---,0.00,VWS V14.01,2013-04-07 01:44:00,
2013-04-06 19:46:00,63.3,53.8,25.25,North,0,0.0,0.0,71,0.00,,---,0.00,VWS V14.01,2013-04-07 01:46:00,
2013-04-06 19:49:00,63.3,53.8,25.25,North,0,0.0,0.0,71,0.00,,---,0.00,VWS V14.01,2013-04-07 01:49:00,
2013-04-06 19:50:00,63.3,53.8,25.25,North,0,0.0,0.0,71,0.00,,---,0.00,VWS V14.01,2013-04-07 01:50:00,
2013-04-06 19:54:00,63.3,53.8,25.25,North,0,0.0,0.0,71,0.00,,---,0.00,VWS V14.01,2013-04-07 01:54:00,
2013-04-06 19:57:00,63.5,54.3,25.25,North,0,0.0,0.0,72,0.00,,---,0.00,VWS V14.01,2013-04-07 01:57:00,
2013-04-06 19:58:00,63.5,54.3,25.25,North,0,0.0,0.0,72,0.00,,---,0.00,VWS V14.01,2013-04-07 01:58:00,
2013-04-06 19:59:00,63.5,54.3,25.25,North,0,0.0,0.0,72,0.00,,---,0.00,VWS V14.01,2013-04-07 01:59:00,
2013-04-06 20:03:00,63.5,54.3,25.25,North,0,0.0,0.0,72,0.00,,---,0.00,VWS V14.01,2013-04-07 02:03:00,
2013-04-06 20:04:00,63.5,54.3,25.28,North,0,0.0,0.0,72,0.00,,---,0.00,VWS V14.01,2013-04-07 02:04:00,
2013-04-06 20:09:00,63.5,54.3,25.28,North,0,0.0,0.0,72,0.00,,---,0.00,VWS V14.01,2013-04-07 02:09:00,
2013-04-06 20:10:00,63.5,54.3,25.28,North,0,0.0,0.0,72,0.00,,---,0.00,VWS V14.01,2013-04-07 02:10:00,
2013-04-06 20:11:00,63.7,54.1,25.28,North,0,0.0,0.0,71,0.00,,---,0.00,VWS V14.01,2013-04-07 02:11:00,
2013-04-06 20:13:00,63.7,54.1,25.28,North,0,0.0,0.0,71,0.00,,---,0.00,VWS V14.01,2013-04-07 02:13:00,
2013-04-06 20:15:00,63.7,54.1,25.28,North,0,0.0,0.0,71,0.00,,---,0.00,VWS V14.01,2013-04-07 02:15:00,
2013-04-06 20:16:00,63.7,54.1,25.28,North,0,0.0,0.0,71,0.00,,---,0.00,VWS V14.01,2013-04-07 02:16:00,
2013-04-06 20:18:00,63.7,54.1,25.28,North,0,0.0,0.0,71,0.00,,---,0.00,VWS V14.01,2013-04-07 02:18:00,
2013-04-06 20:20:00,63.7,54.1,25.28,North,0,0.0,0.0,71,0.00,,---,0.00,VWS V14.01,2013-04-07 02:20:00,
2013-04-06 20:21:00,63.7,54.1,25.28,North,0,0.0,0.0,71,0.00,,---,0.00,VWS V14.01,2013-04-07 02:21:00,
2013-04-06 20:24:00,63.5,54.3,25.28,North,0,0.0,0.0,72,0.00,,---,0.00,VWS V14.01,2013-04-07 02:24:00,
2013-04-06 20:25:00,63.5,54.3,25.28,North,0,0.0,0.0,72,0.00,,---,0.00,VWS V14.01,2013-04-07 02:25:00,
2013-04-06 20:28:00,63.5,54.3,25.28,North,0,0.0,0.0,72,0.00,,---,0.00,VWS V14.01,2013-04-07 02:28:00,
2013-04-06 20:30:00,63.5,54.3,25.28,North,0,0.0,0.0,72,0.00,,---,0.00,VWS V14.01,2013-04-07 02:30:00,
2013-04-06 20:31:00,63.5,54.3,25.28,North,0,0.0,0.0,72,0.00,,---,0.00,VWS V14.01,2013-04-07 02:31:00,
2013-04-06 20:35:00,63.5,54.3,25.28,North,0,0.0,0.0,72,0.00,,---,0.00,VWS V14.01,2013-04-07 02:35:00,
2013-04-06 20:37:00,63.5,54.3,25.28,North,0,0.0,0.0,72,0.00,,---,0.00,VWS V14.01,2013-04-07 02:37:00,
2013-04-06 20:38:00,63.5,54.3,25.28,North,0,0.0,0.0,72,0.00,,---,0.00,VWS V14.01,2013-04-07 02:38:00,
2013-04-06 20:41:00,63.5,54.3,25.28,North,0,0.0,0.0,72,0.00,,---,0.00,VWS V14.01,2013-04-07 02:41:00,
2013-04-06 20:42:00,63.5,54.3,25.28,North,0,0.0,0.0,72,0.00,,---,0.00,VWS V14.01,2013-04-07 02:42:00,
2013-04-06 20:43:00,63.5,54.3,25.28,North,0,0.0,0.0,72,0.00,,---,0.00,VWS V14.01,2013-04-07 02:43:00,
2013-04-06 20:44:00,63.5,54.3,25.28,North,0,0.0,0.0,72,0.00,,---,0.00,VWS V14.01,2013-04-07 02:44:00,
2013-04-06 20:48:00,63.3,53.4,25.28,North,0,0.0,0.0,70,0.00,,---,0.00,VWS V14.01,2013-04-07 02:48:00,
2013-04-06 20:49:00,63.3,53.4,25.28,North,0,0.0,0.0,70,0.00,,---,0.00,VWS V14.01,2013-04-07 02:49:00,
2013-04-06 20:50:00,63.3,53.4,25.28,North,0,0.0,0.0,70,0.00,,---,0.00,VWS V14.01,2013-04-07 02:50:00,
2013-04-06 20:54:00,63.3,53.4,25.28,North,0,0.0,0.0,70,0.00,,---,0.00,VWS V14.01,2013-04-07 02:54:00,
2013-04-06 20:55:00,63.3,53.4,25.28,North,0,0.0,0.0,70,0.00,,---,0.00,VWS V14.01,2013-04-07 02:55:00,
2013-04-06 20:59:00,63.3,53.0,25.28,North,0,0.0,0.0,69,0.00,,---,0.00,VWS V14.01,2013-04-07 02:59:00,
2013-04-06 21:02:00,63.3,53.0,25.28,North,0,0.0,0.0,69,0.00,,---,0.00,VWS V14.01,2013-04-07 03:02:00,
2013-04-06 21:03:00,63.3,53.0,25.28,North,0,0.0,0.0,69,0.00,,---,0.00,VWS V14.01,2013-04-07 03:03:00,
2013-04-06 21:07:00,63.3,53.0,25.28,North,0,0.0,0.0,69,0.00,,---,0.00,VWS V14.01,2013-04-07 03:07:00,
2013-04-06 21:08:00,63.3,53.0,25.28,North,0,0.0,0.0,69,0.00,,---,0.00,VWS V14.01,2013-04-07 03:08:00,
2013-04-06 21:09:00,63.3,53.0,25.28,North,0,0.0,0.0,69,0.00,,---,0.00,VWS V14.01,2013-04-07 03:09:00,
2013-04-06 21:12:00,63.3,53.0,25.28,North,0,0.0,0.0,69,0.00,,---,0.00,VWS V14.01,2013-04-07 03:12:00,
2013-04-06 21:14:00,63.3,53.0,25.28,North,0,0.0,0.0,69,0.00,,---,0.00,VWS V14.01,2013-04-07 03:14:00,
2013-04-06 21:15:00,63.3,53.0,25.28,North,0,0.0,0.0,69,0.00,,---,0.00,VWS V14.01,2013-04-07 03:15:00,
2013-04-06 21:20:00,63.3,53.0,25.28,North,0,0.0,0.0,69,0.00,,---,0.00,VWS V14.01,2013-04-07 03:20:00,
2013-04-06 21:22:00,63.3,53.0,25.28,North,0,0.0,0.0,69,0.00,,---,0.00,VWS V14.01,2013-04-07 03:22:00,
2013-04-06 21:27:00,63.3,53.0,25.28,North,0,0.0,0.0,69,0.00,,---,0.00,VWS V14.01,2013-04-07 03:27:00,
2013-04-06 21:28:00,63.3,53.0,25.28,North,0,0.0,0.0,69,0.00,,---,0.00,VWS V14.01,2013-04-07 03:28:00,
2013-04-06 21:33:00,63.9,51.5,25.28,North,0,0.0,0.0,64,0.00,,---,0.00,VWS V14.01,2013-04-07 03:33:00,
2013-04-06 21:37:00,63.9,51.5,25.28,North,0,0.0,0.0,64,0.00,,---,0.00,VWS V14.01,2013-04-07 03:37:00,
2013-04-06 21:38:00,63.9,51.5,25.28,North,0,0.0,0.0,64,0.00,,---,0.00,VWS V14.01,2013-04-07 03:38:00,
2013-04-06 21:39:00,63.9,51.5,25.28,North,0,0.0,0.0,64,0.00,,---,0.00,VWS V14.01,2013-04-07 03:39:00,
2013-04-06 21:40:00,63.9,51.5,25.28,North,0,0.0,0.0,64,0.00,,---,0.00,VWS V14.01,2013-04-07 03:40:00,
2013-04-06 21:42:00,63.9,51.5,25.28,North,0,0.0,0.0,64,0.00,,---,0.00,VWS V14.01,2013-04-07 03:42:00,
2013-04-06 21:45:00,63.9,51.5,25.28,North,0,0.0,0.0,64,0.00,,---,0.00,VWS V14.01,2013-04-07 03:45:00,
2013-04-06 21:46:00,63.9,51.5,25.28,North,0,0.0,0.0,64,0.00,,---,0.00,VWS V14.01,2013-04-07 03:46:00,
2013-04-06 21:47:00,63.9,51.5,25.28,North,0,0.0,0.0,64,0.00,,---,0.00,VWS V14.01,2013-04-07 03:47:00,
2013-04-06 21:52:00,63.7,51.7,25.28,North,0,0.0,0.0,65,0.00,,---,0.00,VWS V14.01,2013-04-07 03:52:00,
2013-04-06 21:53:00,63.7,51.7,25.28,North,0,0.0,0.0,65,0.00,,---,0.00,VWS V14.01,2013-04-07 03:53:00,
2013-04-06 21:54:00,63.7,51.7,25.28,North,0,0.0,0.0,65,0.00,,---,0.00,VWS V14.01,2013-04-07 03:54:00,
2013-04-06 21:58:00,63.7,51.7,25.28,North,0,0.0,0.0,65,0.00,,---,0.00,VWS V14.01,2013-04-07 03:58:00,
2013-04-06 21:59:00,63.7,51.7,25.28,North,0,0.0,0.0,65,0.00,,---,0.00,VWS V14.01,2013-04-07 03:59:00,
2013-04-06 22:00:00,63.7,51.7,25.28,North,0,0.0,0.0,65,0.00,,---,0.00,VWS V14.01,2013-04-07 04:00:00,
2013-04-06 22:02:00,63.7,51.7,25.28,North,0,0.0,0.0,65,0.00,,---,0.00,VWS V14.01,2013-04-07 04:02:00,
2013-04-06 22:05:00,63.7,51.7,25.28,North,0,0.0,0.0,65,0.00,,---,0.00,VWS V14.01,2013-04-07 04:05:00,
2013-04-06 22:07:00,63.7,51.7,25.28,North,0,0.0,0.0,65,0.00,,---,0.00,VWS V14.01,2013-04-07 04:07:00,
2013-04-06 22:08:00,63.7,51.7,25.28,North,0,0.0,0.0,65,0.00,,---,0.00,VWS V14.01,2013-04-07 04:08:00,
2013-04-06 22:11:00,63.7,51.7,25.28,North,0,0.0,0.0,65,0.00,,---,0.00,VWS V14.01,2013-04-07 04:11:00,
2013-04-06 22:13:00,63.7,51.7,25.28,North,0,0.0,0.0,65,0.00,,---,0.00,VWS V14.01,2013-04-07 04:13:00,
2013-04-06 22:14:00,63.7,51.7,25.28,North,0,0.0,0.0,65,0.00,,---,0.00,VWS V14.01,2013-04-07 04:14:00,
2013-04-06 22:15:00,63.5,53.2,25.28,North,0,0.0,0.0,69,0.00,,---,0.00,VWS V14.01,2013-04-07 04:15:00,
2013-04-06 22:20:00,63.5,52.8,25.28,North,0,0.0,0.0,68,0.00,,---,0.00,VWS V14.01,2013-04-07 04:20:00,
2013-04-06 22:21:00,63.5,52.8,25.28,North,0,0.0,0.0,68,0.00,,---,0.00,VWS V14.01,2013-04-07 04:21:00,
2013-04-06 22:23:00,63.5,52.8,25.28,North,0,0.0,0.0,68,0.00,,---,0.00,VWS V14.01,2013-04-07 04:23:00,
2013-04-06 22:25:00,63.5,52.8,25.28,North,0,0.0,0.0,68,0.00,,---,0.00,VWS V14.01,2013-04-07 04:25:00,
2013-04-06 22:27:00,63.5,52.8,25.28,North,0,0.0,0.0,68,0.00,,---,0.00,VWS V14.01,2013-04-07 04:27:00,
2013-04-06 22:29:00,63.5,52.8,25.28,North,0,0.0,0.0,68,0.00,,---,0.00,VWS V14.01,2013-04-07 04:29:00,
2013-04-06 22:30:00,63.5,52.8,25.28,North,0,0.0,0.0,68,0.00,,---,0.00,VWS V14.01,2013-04-07 04:30:00,
2013-04-06 22:33:00,63.5,52.8,25.25,North,0,0.0,0.0,68,0.00,,---,0.00,VWS V14.01,2013-04-07 04:33:00,
2013-04-06 22:35:00,63.5,52.8,25.25,North,0,0.0,0.0,68,0.00,,---,0.00,VWS V14.01,2013-04-07 04:35:00,
2013-04-06 22:37:00,63.5,52.8,25.25,North,0,0.0,0.0,68,0.00,,---,0.00,VWS V14.01,2013-04-07 04:37:00,
2013-04-06 22:40:00,63.9,52.3,25.25,North,0,0.0,0.0,66,0.00,,---,0.00,VWS V14.01,2013-04-07 04:40:00,
2013-04-06 22:42:00,63.9,52.3,25.25,North,0,0.0,0.0,66,0.00,,---,0.00,VWS V14.01,2013-04-07 04:42:00,
2013-04-06 22:43:00,63.9,51.9,25.25,North,0,0.0,0.0,65,0.00,,---,0.00,VWS V14.01,2013-04-07 04:43:00,
2013-04-06 22:45:00,63.9,51.9,25.25,North,0,0.0,0.0,65,0.00,,---,0.00,VWS V14.01,2013-04-07 04:45:00,
2013-04-06 22:48:00,63.9,52.3,25.28,North,0,0.0,0.0,66,0.00,,---,0.00,VWS V14.01,2013-04-07 04:48:00,
2013-04-06 22:50:00,63.9,52.3,25.28,North,0,0.0,0.0,66,0.00,,---,0.00,VWS V14.01,2013-04-07 04:50:00,
2013-04-06 22:53:00,63.9,52.3,25.28,North,0,0.0,0.0,66,0.00,,---,0.00,VWS V14.01,2013-04-07 04:53:00,
2013-04-06 22:55:00,63.9,52.3,25.28,North,0,0.0,0.0,66,0.00,,---,0.00,VWS V14.01,2013-04-07 04:55:00,
2013-04-06 22:58:00,63.9,52.3,25.28,North,0,0.0,0.0,66,0.00,,---,0.00,VWS V14.01,2013-04-07 04:58:00,
2013-04-06 23:00:00,63.9,52.3,25.28,North,0,0.0,0.0,66,0.00,,---,0.00,VWS V14.01,2013-04-07 05:00:00,
2013-04-06 23:05:00,63.9,52.3,25.28,North,0,0.0,0.0,66,0.00,,---,0.00,VWS V14.01,2013-04-07 05:05:00,
2013-04-06 23:07:00,63.7,50.9,25.28,North,0,0.0,0.0,63,0.00,,---,0.00,VWS V14.01,2013-04-07 05:07:00,
2013-04-06 23:08:00,63.7,50.9,25.28,North,0,0.0,0.0,63,0.00,,---,0.00,VWS V14.01,2013-04-07 05:08:00,
2013-04-06 23:10:00,63.7,50.9,25.28,North,0,0.0,0.0,63,0.00,,---,0.00,VWS V14.01,2013-04-07 05:10:00,
2013-04-06 23:12:00,63.7,50.9,25.28,North,0,0.0,0.0,63,0.00,,---,0.00,VWS V14.01,2013-04-07 05:12:00,
2013-04-06 23:14:00,63.7,50.9,25.28,North,0,0.0,0.0,63,0.00,,---,0.00,VWS V14.01,2013-04-07 05:14:00,
2013-04-06 23:16:00,63.9,50.6,25.28,North,0,0.0,0.0,62,0.00,,---,0.00,VWS V14.01,2013-04-07 05:16:00,
2013-04-06 23:17:00,63.9,50.6,25.28,North,0,0.0,0.0,62,0.00,,---,0.00,VWS V14.01,2013-04-07 05:17:00,
2013-04-06 23:19:00,63.9,50.2,25.28,North,0,0.0,0.0,61,0.00,,---,0.00,VWS V14.01,2013-04-07 05:19:00,
2013-04-06 23:22:00,63.9,50.2,25.28,North,0,0.0,0.0,61,0.00,,---,0.00,VWS V14.01,2013-04-07 05:22:00,
2013-04-06 23:23:00,63.9,50.2,25.28,North,0,0.0,0.0,61,0.00,,---,0.00,VWS V14.01,2013-04-07 05:23:00,
2013-04-06 23:25:00,63.9,50.6,25.28,North,0,0.0,0.0,62,0.00,,---,0.00,VWS V14.01,2013-04-07 05:25:00,
2013-04-06 23:28:00,63.9,50.6,25.28,North,0,0.0,0.0,62,0.00,,---,0.00,VWS V14.01,2013-04-07 05:28:00,
2013-04-06 23:29:00,63.9,50.6,25.28,North,0,0.0,0.0,62,0.00,,---,0.00,VWS V14.01,2013-04-07 05:29:00,
2013-04-06 23:31:00,63.5,50.7,25.28,North,0,0.0,0.0,63,0.00,,---,0.00,VWS V14.01,2013-04-07 05:31:00,
2013-04-06 23:34:00,63.5,50.7,25.28,North,0,0.0,0.0,63,0.00,,---,0.00,VWS V14.01,2013-04-07 05:34:00,
2013-04-06 23:36:00,63.5,50.7,25.28,North,0,0.0,0.0,63,0.00,,---,0.00,VWS V14.01,2013-04-07 05:36:00,
2013-04-06 23:37:00,63.5,50.7,25.28,North,0,0.0,0.0,63,0.00,,---,0.00,VWS V14.01,2013-04-07 05:37:00,
2013-04-06 23:38:00,63.5,50.7,25.28,North,0,0.0,0.0,63,0.00,,---,0.00,VWS V14.01,2013-04-07 05:38:00,
2013-04-06 23:42:00,63.5,50.7,25.28,North,0,0.0,0.0,63,0.00,,---,0.00,VWS V14.01,2013-04-07 05:42:00,
2013-04-06 23:43:00,63.5,50.7,25.28,North,0,0.0,0.0,63,0.00,,---,0.00,VWS V14.01,2013-04-07 05:43:00,
2013-04-06 23:44:00,63.5,50.7,25.28,North,0,0.0,0.0,63,0.00,,---,0.00,VWS V14.01,2013-04-07 05:44:00,
2013-04-06 23:45:00,63.5,50.7,25.28,North,0,0.0,0.0,63,0.00,,---,0.00,VWS V14.01,2013-04-07 05:45:00,
2013-04-06 23:50:00,63.0,51.0,25.28,North,0,0.0,0.0,65,0.00,,---,0.00,VWS V14.01,2013-04-07 05:50:00,
2013-04-06 23:52:00,63.0,51.0,25.25,North,0,0.0,0.0,65,0.00,,---,0.00,VWS V14.01,2013-04-07 05:52:00,
2013-04-06 23:53:00,63.0,50.6,25.25,North,0,0.0,0.0,64,0.00,,---,0.00,VWS V14.01,2013-04-07 05:53:00,
2013-04-06 23:55:00,63.1,51.2,25.25,North,0,0.0,0.0,65,0.00,,---,0.00,VWS V14.01,2013-04-07 05:55:00,
2013-04-06 23:57:00,63.1,51.2,25.25,North,0,0.0,0.0,65,0.00,,---,0.00,VWS V14.01,2013-04-07 05:57:00,